Observation data for Aiken on 02/12/2018      Previous  Date  Next       Current Mesonet Observations  Soil Data  Daily Summary Page  Observations in Plain Language
KAI1 120600Z 18007KT M08/M17 A3023 RMK A01 T10761171  RH  047%=      5-min Rain = 0
KAI1 120601Z 18007KT M08/M17 A3023 RMK A01 T10761170  RH  047%=      5-min Rain = 0
KAI1 120602Z 18007KT M07/M17 A3023 RMK A01 T10741170  RH  046%=      5-min Rain = 0
KAI1 120603Z 17007KT M07/M17 A3023 RMK A01 T10741171  RH  046%=      5-min Rain = 0
KAI1 120604Z 17007KT M07/M17 A3023 RMK A01 T10741172  RH  046%=      5-min Rain = 0
KAI1 120605Z 17007KT M07/M17 A3023 RMK A01 T10741172  RH  045%=      5-min Rain = 0
KAI1 120606Z 17007KT M07/M17 A3023 RMK A01 T10741172  RH  045%=      5-min Rain = 0
KAI1 120607Z 17007KT M07/M17 A3023 RMK A01 T10741172  RH  045%=      5-min Rain = 0
KAI1 120608Z 17006KT M08/M18 A3023 RMK A01 T10751175  RH  045%=      5-min Rain = 0
KAI1 120609Z 16005KT M08/M18 A3023 RMK A01 T10761177  RH  044%=      5-min Rain = 0
KAI1 120610Z 17005KT M08/M18 A3023 RMK A01 T10771180  RH  043%=      5-min Rain = 0
KAI1 120611Z 17005KT M08/M18 A3023 RMK A01 T10781181  RH  043%=      5-min Rain = 0
KAI1 120612Z 16005KT M08/M18 A3023 RMK A01 T10791181  RH  044%=      5-min Rain = 0
KAI1 120613Z 16006KT M08/M18 A3023 RMK A01 T10791180  RH  044%=      5-min Rain = 0
KAI1 120614Z 16007KT M08/M18 A3023 RMK A01 T10791179  RH  045%=      5-min Rain = 0
KAI1 120615Z 16007KT M08/M18 A3023 RMK A01 T10791179  RH  045%=      5-min Rain = 0
KAI1 120616Z 16007KT M08/M18 A3023 RMK A01 T10791179  RH  045%=      5-min Rain = 0
KAI1 120617Z 16007KT M08/M18 A3023 RMK A01 T10791179  RH  045%=      5-min Rain = 0
KAI1 120618Z 17007KT M08/M18 A3023 RMK A01 T10791179  RH  045%=      5-min Rain = 0
KAI1 120619Z 16006KT M08/M18 A3023 RMK A01 T10791179  RH  045%=      5-min Rain = 0
KAI1 120620Z 16006KT M08/M18 A3023 RMK A01 T10801179  RH  045%=      5-min Rain = 0
KAI1 120621Z 16006KT M08/M18 A3023 RMK A01 T10801179  RH  045%=      5-min Rain = 0
KAI1 120622Z 16006KT M08/M18 A3023 RMK A01 T10801178  RH  045%=      5-min Rain = 0
KAI1 120623Z 16006KT M08/M18 A3023 RMK A01 T10791176  RH  046%=      5-min Rain = 0
KAI1 120624Z 17007KT M08/M17 A3023 RMK A01 T10791174  RH  046%=      5-min Rain = 0
KAI1 120625Z 17007KT M08/M17 A3023 RMK A01 T10781173  RH  046%=      5-min Rain = 0
KAI1 120626Z 17007KT M08/M17 A3024 RMK A01 T10781173  RH  046%=      5-min Rain = 0
KAI1 120627Z 17007KT M08/M17 A3024 RMK A01 T10781173  RH  047%=      5-min Rain = 0
KAI1 120628Z 17007KT M08/M17 A3024 RMK A01 T10771172  RH  047%=      5-min Rain = 0
KAI1 120629Z 17007KT M08/M17 A3024 RMK A01 T10761172  RH  046%=      5-min Rain = 0
KAI1 120630Z 17007KT M08/M17 A3023 RMK A01 T10761173  RH  046%=      5-min Rain = 0
KAI1 120631Z 16006KT M08/M17 A3024 RMK A01 T10761174  RH  045%=      5-min Rain = 0
KAI1 120632Z 17006KT M08/M18 A3024 RMK A01 T10771175  RH  045%=      5-min Rain = 0
KAI1 120633Z 17006KT M08/M18 A3024 RMK A01 T10771176  RH  045%=      5-min Rain = 0
KAI1 120634Z 17006KT M08/M18 A3024 RMK A01 T10781177  RH  045%=      5-min Rain = 0
KAI1 120635Z 17006KT M08/M18 A3024 RMK A01 T10791177  RH  045%=      5-min Rain = 0
KAI1 120636Z 17006KT M08/M18 A3024 RMK A01 T10791177  RH  045%=      5-min Rain = 0
KAI1 120637Z 17006KT M08/M18 A3024 RMK A01 T10801177  RH  045%=      5-min Rain = 0
KAI1 120638Z 16006KT M08/M18 A3024 RMK A01 T10811177  RH  046%=      5-min Rain = 0
KAI1 120639Z 16006KT M08/M18 A3024 RMK A01 T10811177  RH  046%=      5-min Rain = 0
KAI1 120640Z 16006KT M08/M18 A3024 RMK A01 T10821177  RH  046%=      5-min Rain = 0
KAI1 120641Z 16006KT M08/M18 A3024 RMK A01 T10821178  RH  046%=      5-min Rain = 0
KAI1 120642Z 16007KT M08/M18 A3024 RMK A01 T10831180  RH  045%=      5-min Rain = 0
KAI1 120643Z 16007KT M08/M18 A3024 RMK A01 T10831181  RH  045%=      5-min Rain = 0
KAI1 120644Z 16007KT M08/M18 A3024 RMK A01 T10831181  RH  045%=      5-min Rain = 0
KAI1 120645Z 16007KT M08/M18 A3024 RMK A01 T10831180  RH  045%=      5-min Rain = 0
KAI1 120646Z 16007KT M08/M18 A3024 RMK A01 T10831181  RH  045%=      5-min Rain = 0
KAI1 120647Z 16007KT M08/M18 A3024 RMK A01 T10831182  RH  045%=      5-min Rain = 0
KAI1 120648Z 16007KT M08/M18 A3024 RMK A01 T10831183  RH  045%=      5-min Rain = 0
KAI1 120649Z 16007KT M08/M18 A3024 RMK A01 T10841184  RH  044%=      5-min Rain = 0
KAI1 120650Z 16007KT M09/M19 A3024 RMK A01 T10851186  RH  044%=      5-min Rain = 0
KAI1 120651Z 16007KT M09/M19 A3024 RMK A01 T10861187  RH  044%=      5-min Rain = 0
KAI1 120652Z 16007KT M09/M19 A3024 RMK A01 T10871188  RH  044%=      5-min Rain = 0
KAI1 120653Z 16007KT M09/M19 A3024 RMK A01 T10881190  RH  044%=      5-min Rain = 0
KAI1 120654Z 17007KT M09/M19 A3024 RMK A01 T10891191  RH  044%=      5-min Rain = 0
KAI1 120655Z 16007KT M09/M19 A3024 RMK A01 T10901190  RH  044%=      5-min Rain = 0
KAI1 120656Z 16007KT M09/M19 A3024 RMK A01 T10901189  RH  045%=      5-min Rain = 0
KAI1 120657Z 16007KT M09/M19 A3024 RMK A01 T10911189  RH  045%=      5-min Rain = 0
KAI1 120658Z 16007KT M09/M19 A3024 RMK A01 T10911190  RH  044%=      5-min Rain = 0
KAI1 120659Z 16007KT M09/M19 A3024 RMK A01 T10921191  RH  044%=      5-min Rain = 0
KAI1 120700Z 15007KT M09/M19 A3024 RMK A01 T10911189  RH  045%=      5-min Rain = 0
KAI1 120701Z 15007KT M09/M19 A3024 RMK A01 T10901186  RH  046%=      5-min Rain = 0
KAI1 120702Z 15007KT M09/M19 A3024 RMK A01 T10891185  RH  046%=      5-min Rain = 0
KAI1 120703Z 15007KT M09/M19 A3024 RMK A01 T10881185  RH  045%=      5-min Rain = 0
KAI1 120704Z 15007KT M09/M19 A3024 RMK A01 T10881188  RH  044%=      5-min Rain = 0
KAI1 120705Z 15006KT M09/M19 A3024 RMK A01 T10891191  RH  043%=      5-min Rain = 0
KAI1 120706Z 15006KT M09/M19 A3024 RMK A01 T10901192  RH  043%=      5-min Rain = 0
KAI1 120707Z 15006KT M09/M19 A3024 RMK A01 T10911191  RH  044%=      5-min Rain = 0
KAI1 120708Z 15007KT M09/M19 A3024 RMK A01 T10911190  RH  044%=      5-min Rain = 0
KAI1 120709Z 15007KT M09/M19 A3024 RMK A01 T10911189  RH  045%=      5-min Rain = 0
KAI1 120710Z 15007KT M09/M19 A3024 RMK A01 T10901186  RH  046%=      5-min Rain = 0
KAI1 120711Z 15007KT M09/M18 A3024 RMK A01 T10891184  RH  046%=      5-min Rain = 0
KAI1 120712Z 15006KT M09/M19 A3024 RMK A01 T10881185  RH  045%=      5-min Rain = 0
KAI1 120713Z 15006KT M09/M19 A3024 RMK A01 T10881186  RH  045%=      5-min Rain = 0
KAI1 120714Z 15006KT M09/M19 A3024 RMK A01 T10881186  RH  045%=      5-min Rain = 0
KAI1 120715Z 15006KT M09/M18 A3024 RMK A01 T10881184  RH  045%=      5-min Rain = 0
KAI1 120716Z 15006KT M09/M18 A3024 RMK A01 T10871183  RH  046%=      5-min Rain = 0
KAI1 120717Z 15006KT M09/M18 A3024 RMK A01 T10861183  RH  046%=      5-min Rain = 0
KAI1 120718Z 15005KT M09/M18 A3024 RMK A01 T10861182  RH  045%=      5-min Rain = 0
KAI1 120719Z 15005KT M09/M19 A3024 RMK A01 T10861186  RH  044%=      5-min Rain = 0
KAI1 120720Z 15006KT M09/M19 A3024 RMK A01 T10871191  RH  043%=      5-min Rain = 0
KAI1 120721Z 15006KT M09/M19 A3024 RMK A01 T10881188  RH  044%=      5-min Rain = 0
KAI1 120722Z 15006KT M09/M19 A3024 RMK A01 T10881186  RH  045%=      5-min Rain = 0
KAI1 120723Z 15006KT M09/M18 A3024 RMK A01 T10871183  RH  046%=      5-min Rain = 0
KAI1 120724Z 15006KT M09/M18 A3024 RMK A01 T10861182  RH  046%=      5-min Rain = 0
KAI1 120725Z 15006KT M08/M18 A3024 RMK A01 T10841180  RH  046%=      5-min Rain = 0
KAI1 120726Z 15006KT M08/M18 A3024 RMK A01 T10831178  RH  046%=      5-min Rain = 0
KAI1 120727Z 15006KT M08/M18 A3024 RMK A01 T10821178  RH  046%=      5-min Rain = 0
KAI1 120728Z 15006KT M08/M18 A3024 RMK A01 T10811178  RH  045%=      5-min Rain = 0
KAI1 120729Z 15006KT M08/M18 A3024 RMK A01 T10811179  RH  045%=      5-min Rain = 0
KAI1 120730Z 15006KT M08/M18 A3024 RMK A01 T10811180  RH  045%=      5-min Rain = 0
KAI1 120731Z 15006KT M08/M18 A3024 RMK A01 T10811181  RH  045%=      5-min Rain = 0
KAI1 120732Z 16005KT M08/M18 A3024 RMK A01 T10811180  RH  045%=      5-min Rain = 0
KAI1 120733Z 16005KT M08/M18 A3024 RMK A01 T10811180  RH  045%=      5-min Rain = 0
KAI1 120734Z 16005KT M08/M18 A3024 RMK A01 T10811180  RH  045%=      5-min Rain = 0
KAI1 120735Z 16005KT M08/M18 A3025 RMK A01 T10821180  RH  045%=      5-min Rain = 0
KAI1 120736Z 16005KT M08/M18 A3025 RMK A01 T10821180  RH  045%=      5-min Rain = 0
KAI1 120737Z 15005KT M08/M18 A3025 RMK A01 T10831179  RH  046%=      5-min Rain = 0
KAI1 120738Z 15005KT M08/M18 A3025 RMK A01 T10821177  RH  046%=      5-min Rain = 0
KAI1 120739Z 15005KT M08/M18 A3025 RMK A01 T10811176  RH  046%=      5-min Rain = 0
KAI1 120740Z 15004KT M08/M18 A3025 RMK A01 T10801177  RH  046%=      5-min Rain = 0
KAI1 120741Z 15004KT M08/M18 A3025 RMK A01 T10801178  RH  045%=      5-min Rain = 0
KAI1 120742Z 15004KT M08/M18 A3025 RMK A01 T10801178  RH  045%=      5-min Rain = 0
KAI1 120743Z 14004KT M08/M18 A3025 RMK A01 T10811181  RH  044%=      5-min Rain = 0
KAI1 120744Z 14004KT M08/M18 A3025 RMK A01 T10831183  RH  044%=      5-min Rain = 0
KAI1 120745Z 15003KT M08/M18 A3025 RMK A01 T10841183  RH  045%=      5-min Rain = 0
KAI1 120746Z 16003KT M09/M18 A3025 RMK A01 T10851182  RH  045%=      5-min Rain = 0
KAI1 120747Z 16004KT M09/M18 A3025 RMK A01 T10851182  RH  045%=      5-min Rain = 0
KAI1 120748Z 16003KT M09/M18 A3025 RMK A01 T10851181  RH  046%=      5-min Rain = 0
KAI1 120749Z 16003KT M09/M18 A3025 RMK A01 T10861181  RH  046%=      5-min Rain = 0
KAI1 120750Z 16003KT M09/M18 A3025 RMK A01 T10851180  RH  046%=      5-min Rain = 0
KAI1 120751Z 16003KT M09/M18 A3025 RMK A01 T10861179  RH  047%=      5-min Rain = 0
KAI1 120752Z 16003KT M09/M18 A3025 RMK A01 T10861179  RH  047%=      5-min Rain = 0
KAI1 120753Z 17003KT M09/M18 A3026 RMK A01 T10851179  RH  047%=      5-min Rain = 0
KAI1 120754Z 17003KT M09/M18 A3026 RMK A01 T10851180  RH  046%=      5-min Rain = 0
KAI1 120755Z 17004KT M09/M18 A3026 RMK A01 T10851179  RH  046%=      5-min Rain = 0
KAI1 120756Z 16003KT M09/M18 A3026 RMK A01 T10851179  RH  046%=      5-min Rain = 0
KAI1 120757Z 16003KT M08/M18 A3026 RMK A01 T10841179  RH  046%=      5-min Rain = 0
KAI1 120758Z 17003KT M08/M18 A3026 RMK A01 T10841181  RH  045%=      5-min Rain = 0
KAI1 120759Z 17003KT M09/M19 A3026 RMK A01 T10851185  RH  044%=      5-min Rain = 0
KAI1 120800Z 17002KT M09/M19 A3026 RMK A01 T10871189  RH  043%=      5-min Rain = 0
KAI1 120801Z 17002KT M09/M19 A3026 RMK A01 T10891190  RH  043%=      5-min Rain = 0
KAI1 120802Z 17001KT M09/M19 A3026 RMK A01 T10911194  RH  043%=      5-min Rain = 0
KAI1 120803Z 17001KT M09/M20 A3026 RMK A01 T10921195  RH  043%=      5-min Rain = 0
KAI1 120804Z 17002KT M09/M19 A3026 RMK A01 T10921188  RH  045%=      5-min Rain = 0
KAI1 120805Z 17002KT M09/M18 A3026 RMK A01 T10901182  RH  047%=      5-min Rain = 0
KAI1 120806Z 17002KT M09/M19 A3026 RMK A01 T10901185  RH  046%=      5-min Rain = 0
KAI1 120807Z 17002KT M09/M18 A3026 RMK A01 T10891182  RH  047%=      5-min Rain = 0
KAI1 120808Z 17002KT M09/M18 A3026 RMK A01 T10891182  RH  047%=      5-min Rain = 0
KAI1 120809Z 18002KT M09/M19 A3026 RMK A01 T10891185  RH  046%=      5-min Rain = 0
KAI1 120810Z 18002KT M09/M18 A3026 RMK A01 T10901184  RH  046%=      5-min Rain = 0
KAI1 120811Z 18002KT M09/M18 A3026 RMK A01 T10891181  RH  047%=      5-min Rain = 0
KAI1 120812Z 18002KT M09/M18 A3026 RMK A01 T10881180  RH  047%=      5-min Rain = 0
KAI1 120813Z 18001KT M09/M18 A3026 RMK A01 T10881182  RH  046%=      5-min Rain = 0
KAI1 120814Z 18001KT M09/M18 A3026 RMK A01 T10891183  RH  046%=      5-min Rain = 0
KAI1 120815Z 18001KT M09/M18 A3026 RMK A01 T10881181  RH  047%=      5-min Rain = 0
KAI1 120816Z 18001KT M09/M18 A3026 RMK A01 T10871178  RH  048%=      5-min Rain = 0
KAI1 120817Z 18000KT M09/M18 A3026 RMK A01 T10851177  RH  048%=      5-min Rain = 0
KAI1 120818Z 15001KT M09/M18 A3026 RMK A01 T10851178  RH  047%=      5-min Rain = 0
KAI1 120819Z 14001KT M09/M18 A3026 RMK A01 T10861179  RH  047%=      5-min Rain = 0
KAI1 120820Z 14001KT M09/M18 A3026 RMK A01 T10861178  RH  047%=      5-min Rain = 0
KAI1 120821Z 14001KT M09/M18 A3026 RMK A01 T10861178  RH  047%=      5-min Rain = 0
KAI1 120822Z 13002KT M09/M18 A3026 RMK A01 T10861178  RH  047%=      5-min Rain = 0
KAI1 120823Z 13002KT M09/M18 A3026 RMK A01 T10871182  RH  046%=      5-min Rain = 0
KAI1 120824Z 13002KT M09/M18 A3026 RMK A01 T10891184  RH  046%=      5-min Rain = 0
KAI1 120825Z 14002KT M09/M18 A3026 RMK A01 T10891184  RH  046%=      5-min Rain = 0
KAI1 120826Z 15001KT M09/M19 A3026 RMK A01 T10901185  RH  046%=      5-min Rain = 0
KAI1 120827Z 17001KT M09/M19 A3026 RMK A01 T10921187  RH  046%=      5-min Rain = 0
KAI1 120828Z 18002KT M09/M19 A3026 RMK A01 T10931188  RH  046%=      5-min Rain = 0
KAI1 120829Z 18002KT M09/M18 A3026 RMK A01 T10921182  RH  048%=      5-min Rain = 0
KAI1 120830Z 18002KT M09/M18 A3026 RMK A01 T10881175  RH  049%=      5-min Rain = 0
KAI1 120831Z 17002KT M09/M17 A3026 RMK A01 T10861172  RH  050%=      5-min Rain = 0
KAI1 120832Z 16002KT M08/M17 A3026 RMK A01 T10831170  RH  050%=      5-min Rain = 0
KAI1 120833Z 16002KT M08/M17 A3026 RMK A01 T10811170  RH  049%=      5-min Rain = 0
KAI1 120834Z 15002KT M08/M17 A3026 RMK A01 T10811171  RH  048%=      5-min Rain = 0
KAI1 120835Z 14001KT M08/M17 A3026 RMK A01 T10811173  RH  047%=      5-min Rain = 0
KAI1 120836Z 14001KT M08/M17 A3026 RMK A01 T10821174  RH  047%=      5-min Rain = 0
KAI1 120837Z 14001KT M08/M18 A3026 RMK A01 T10841182  RH  045%=      5-min Rain = 0
KAI1 120838Z 15001KT M09/M19 A3026 RMK A01 T10891192  RH  043%=      5-min Rain = 0
KAI1 120839Z 18001KT M09/M19 A3026 RMK A01 T10921191  RH  044%=      5-min Rain = 0
KAI1 120840Z 19001KT M09/M19 A3025 RMK A01 T10931190  RH  045%=      5-min Rain = 0
KAI1 120841Z 19001KT M09/M19 A3025 RMK A01 T10931187  RH  046%=      5-min Rain = 0
KAI1 120842Z 19001KT M09/M18 A3025 RMK A01 T10901178  RH  049%=      5-min Rain = 0
KAI1 120843Z 19002KT M09/M18 A3025 RMK A01 T10881175  RH  049%=      5-min Rain = 0
KAI1 120844Z 19001KT M09/M18 A3025 RMK A01 T10871177  RH  048%=      5-min Rain = 0
KAI1 120845Z 18001KT M09/M18 A3025 RMK A01 T10871175  RH  049%=      5-min Rain = 0
KAI1 120846Z 18001KT M09/M17 A3025 RMK A01 T10851172  RH  049%=      5-min Rain = 0
KAI1 120847Z 18000KT M08/M17 A3025 RMK A01 T10841172  RH  049%=      5-min Rain = 0
KAI1 120848Z 00000KT M08/M18 A3025 RMK A01 T10841177  RH  047%=      5-min Rain = 0
KAI1 120849Z 00000KT M09/M18 A3025 RMK A01 T10851177  RH  047%=      5-min Rain = 0
KAI1 120850Z 00000KT M09/M18 A3025 RMK A01 T10851178  RH  047%=      5-min Rain = 0
KAI1 120851Z 00000KT M09/M18 A3025 RMK A01 T10851177  RH  048%=      5-min Rain = 0
KAI1 120852Z 00000KT M09/M18 A3025 RMK A01 T10861178  RH  047%=      5-min Rain = 0
KAI1 120853Z 00000KT M09/M18 A3025 RMK A01 T10881184  RH  046%=      5-min Rain = 0
KAI1 120854Z 00000KT M09/M18 A3025 RMK A01 T10901184  RH  046%=      5-min Rain = 0
KAI1 120855Z 18000KT M09/M18 A3025 RMK A01 T10911184  RH  047%=      5-min Rain = 0
KAI1 120856Z 17001KT M09/M18 A3025 RMK A01 T10911180  RH  048%=      5-min Rain = 0
KAI1 120857Z 17001KT M09/M18 A3025 RMK A01 T10901177  RH  049%=      5-min Rain = 0
KAI1 120858Z 18002KT M09/M18 A3025 RMK A01 T10891177  RH  049%=      5-min Rain = 0
KAI1 120859Z 19002KT M09/M18 A3025 RMK A01 T10881177  RH  049%=      5-min Rain = 0
KAI1 120900Z 19002KT M09/M18 A3025 RMK A01 T10891179  RH  048%=      5-min Rain = 0
KAI1 120901Z 20002KT M09/M18 A3025 RMK A01 T10891179  RH  048%=      5-min Rain = 0
KAI1 120902Z 20002KT M09/M19 A3025 RMK A01 T10911185  RH  046%=      5-min Rain = 0
KAI1 120903Z 20003KT M10/M19 A3025 RMK A01 T10981193  RH  046%=      5-min Rain = 0
KAI1 120904Z 20003KT M10/M20 A3025 RMK A01 T11041197  RH  046%=      5-min Rain = 0
KAI1 120905Z 19003KT M11/M20 A3025 RMK A01 T11071197  RH  048%=      5-min Rain = 0
KAI1 120906Z 19003KT M11/M19 A3025 RMK A01 T11101194  RH  050%=      5-min Rain = 0
KAI1 120907Z 19004KT M11/M19 A3025 RMK A01 T11111191  RH  051%=      5-min Rain = 0
KAI1 120908Z 18004KT M11/M19 A3025 RMK A01 T11091187  RH  053%=      5-min Rain = 0
KAI1 120909Z 18005KT M11/M18 A3025 RMK A01 T11061183  RH  053%=      5-min Rain = 0
KAI1 120910Z 18005KT M10/M18 A3025 RMK A01 T11041181  RH  053%=      5-min Rain = 0
KAI1 120911Z 18004KT M10/M18 A3025 RMK A01 T11011180  RH  053%=      5-min Rain = 0
KAI1 120912Z 18004KT M10/M18 A3025 RMK A01 T10991180  RH  052%=      5-min Rain = 0
KAI1 120913Z 18004KT M10/M18 A3025 RMK A01 T10981182  RH  051%=      5-min Rain = 0
KAI1 120914Z 18004KT M10/M19 A3025 RMK A01 T10991188  RH  048%=      5-min Rain = 0
KAI1 120915Z 18004KT M10/M20 A3025 RMK A01 T11001195  RH  046%=      5-min Rain = 0
KAI1 120916Z 17004KT M10/M20 A3025 RMK A01 T11021201  RH  044%=      5-min Rain = 0
KAI1 120917Z 17004KT M10/M21 A3025 RMK A01 T11041205  RH  043%=      5-min Rain = 0
KAI1 120918Z 17005KT M11/M21 A3025 RMK A01 T11061205  RH  044%=      5-min Rain = 0
KAI1 120919Z 17005KT M11/M20 A3025 RMK A01 T11081202  RH  046%=      5-min Rain = 0
KAI1 120920Z 18004KT M11/M20 A3025 RMK A01 T11081200  RH  047%=      5-min Rain = 0
KAI1 120921Z 18004KT M11/M20 A3025 RMK A01 T11081199  RH  047%=      5-min Rain = 0
KAI1 120922Z 17004KT M11/M20 A3025 RMK A01 T11081198  RH  048%=      5-min Rain = 0
KAI1 120923Z 17005KT M11/M20 A3025 RMK A01 T11081196  RH  048%=      5-min Rain = 0
KAI1 120924Z 17005KT M11/M19 A3025 RMK A01 T11081194  RH  049%=      5-min Rain = 0
KAI1 120925Z 18005KT M11/M19 A3025 RMK A01 T11081192  RH  050%=      5-min Rain = 0
KAI1 120926Z 18006KT M11/M19 A3025 RMK A01 T11061189  RH  051%=      5-min Rain = 0
KAI1 120927Z 18006KT M11/M19 A3025 RMK A01 T11051186  RH  051%=      5-min Rain = 0
KAI1 120928Z 18006KT M10/M18 A3025 RMK A01 T11011182  RH  052%=      5-min Rain = 0
KAI1 120929Z 18006KT M10/M17 A3025 RMK A01 T10961174  RH  053%=      5-min Rain = 0
KAI1 120930Z 18006KT M09/M17 A3025 RMK A01 T10901170  RH  052%=      5-min Rain = 0
KAI1 120931Z 18006KT M09/M17 A3025 RMK A01 T10881171  RH  051%=      5-min Rain = 0
KAI1 120932Z 18006KT M09/M17 A3025 RMK A01 T10871172  RH  050%=      5-min Rain = 0
KAI1 120933Z 17007KT M09/M17 A3025 RMK A01 T10871174  RH  050%=      5-min Rain = 0
KAI1 120934Z 17007KT M09/M17 A3025 RMK A01 T10891174  RH  050%=      5-min Rain = 0
KAI1 120935Z 17007KT M09/M17 A3025 RMK A01 T10891174  RH  050%=      5-min Rain = 0
KAI1 120936Z 17007KT M09/M17 A3025 RMK A01 T10871173  RH  050%=      5-min Rain = 0
KAI1 120937Z 17007KT M09/M17 A3025 RMK A01 T10861173  RH  049%=      5-min Rain = 0
KAI1 120938Z 17007KT M09/M17 A3025 RMK A01 T10861174  RH  049%=      5-min Rain = 0
KAI1 120939Z 17008KT M09/M18 A3025 RMK A01 T10861175  RH  049%=      5-min Rain = 0
KAI1 120940Z 17008KT M09/M18 A3025 RMK A01 T10861177  RH  048%=      5-min Rain = 0
KAI1 120941Z 17008KT M09/M18 A3025 RMK A01 T10871180  RH  047%=      5-min Rain = 0
KAI1 120942Z 17008KT M09/M18 A3025 RMK A01 T10881183  RH  046%=      5-min Rain = 0
KAI1 120943Z 16008KT M09/M18 A3025 RMK A01 T10901184  RH  046%=      5-min Rain = 0
KAI1 120944Z 17008KT M09/M19 A3025 RMK A01 T10911185  RH  046%=      5-min Rain = 0
KAI1 120945Z 17008KT M09/M19 A3025 RMK A01 T10921186  RH  046%=      5-min Rain = 0
KAI1 120946Z 17008KT M09/M19 A3025 RMK A01 T10931188  RH  046%=      5-min Rain = 0
KAI1 120947Z 17008KT M09/M19 A3025 RMK A01 T10941189  RH  046%=      5-min Rain = 0
KAI1 120948Z 17008KT M10/M19 A3026 RMK A01 T10951189  RH  046%=      5-min Rain = 0
KAI1 120949Z 16008KT M10/M19 A3026 RMK A01 T10961189  RH  047%=      5-min Rain = 0
KAI1 120950Z 17007KT M10/M19 A3026 RMK A01 T10971189  RH  047%=      5-min Rain = 0
KAI1 120951Z 17007KT M10/M19 A3026 RMK A01 T10971189  RH  047%=      5-min Rain = 0
KAI1 120952Z 16006KT M10/M19 A3026 RMK A01 T10981188  RH  048%=      5-min Rain = 0
KAI1 120953Z 16006KT M10/M19 A3026 RMK A01 T10981187  RH  048%=      5-min Rain = 0
KAI1 120954Z 16005KT M10/M19 A3026 RMK A01 T10971187  RH  048%=      5-min Rain = 0
KAI1 120955Z 15005KT M10/M19 A3026 RMK A01 T10961187  RH  047%=      5-min Rain = 0
KAI1 120956Z 15005KT M10/M19 A3026 RMK A01 T10961188  RH  047%=      5-min Rain = 0
KAI1 120957Z 16005KT M10/M19 A3026 RMK A01 T10961188  RH  047%=      5-min Rain = 0
KAI1 120958Z 16005KT M10/M19 A3026 RMK A01 T10951187  RH  047%=      5-min Rain = 0
KAI1 120959Z 16005KT M10/M19 A3026 RMK A01 T10951186  RH  048%=      5-min Rain = 0
KAI1 121000Z 16005KT M09/M18 A3026 RMK A01 T10941184  RH  048%=      5-min Rain = 0
KAI1 121001Z 16005KT M09/M18 A3026 RMK A01 T10941182  RH  049%=      5-min Rain = 0
KAI1 121002Z 16005KT M09/M18 A3026 RMK A01 T10931182  RH  049%=      5-min Rain = 0
KAI1 121003Z 16005KT M09/M18 A3026 RMK A01 T10931182  RH  049%=      5-min Rain = 0
KAI1 121004Z 16005KT M09/M18 A3026 RMK A01 T10931181  RH  049%=      5-min Rain = 0
KAI1 121005Z 16005KT M09/M18 A3026 RMK A01 T10921181  RH  049%=      5-min Rain = 0
KAI1 121006Z 16005KT M09/M18 A3026 RMK A01 T10921180  RH  049%=      5-min Rain = 0
KAI1 121007Z 16005KT M09/M18 A3026 RMK A01 T10911180  RH  049%=      5-min Rain = 0
KAI1 121008Z 16005KT M09/M18 A3026 RMK A01 T10901179  RH  049%=      5-min Rain = 0
KAI1 121009Z 16004KT M09/M18 A3026 RMK A01 T10891177  RH  049%=      5-min Rain = 0
KAI1 121010Z 16004KT M09/M18 A3026 RMK A01 T10881177  RH  049%=      5-min Rain = 0
KAI1 121011Z 16004KT M09/M18 A3026 RMK A01 T10871176  RH  049%=      5-min Rain = 0
KAI1 121012Z 17004KT M09/M17 A3026 RMK A01 T10861174  RH  049%=      5-min Rain = 0
KAI1 121013Z 17004KT M09/M17 A3026 RMK A01 T10851172  RH  049%=      5-min Rain = 0
KAI1 121014Z 17004KT M08/M17 A3026 RMK A01 T10831171  RH  049%=      5-min Rain = 0
KAI1 121015Z 17005KT M08/M17 A3026 RMK A01 T10831170  RH  049%=      5-min Rain = 0
KAI1 121016Z 16005KT M08/M17 A3026 RMK A01 T10821170  RH  049%=      5-min Rain = 0
KAI1 121017Z 16005KT M08/M17 A3026 RMK A01 T10811170  RH  049%=      5-min Rain = 0
KAI1 121018Z 16005KT M08/M17 A3026 RMK A01 T10801169  RH  049%=      5-min Rain = 0
KAI1 121019Z 16006KT M08/M17 A3026 RMK A01 T10791169  RH  049%=      5-min Rain = 0
KAI1 121020Z 16006KT M08/M17 A3026 RMK A01 T10791170  RH  048%=      5-min Rain = 0
KAI1 121021Z 16006KT M08/M17 A3026 RMK A01 T10801172  RH  048%=      5-min Rain = 0
KAI1 121022Z 16006KT M08/M18 A3026 RMK A01 T10811175  RH  047%=      5-min Rain = 0
KAI1 121023Z 16007KT M08/M18 A3026 RMK A01 T10821176  RH  047%=      5-min Rain = 0
KAI1 121024Z 16007KT M08/M18 A3026 RMK A01 T10831177  RH  047%=      5-min Rain = 0
KAI1 121025Z 16007KT M08/M18 A3026 RMK A01 T10841178  RH  047%=      5-min Rain = 0
KAI1 121026Z 16007KT M09/M18 A3026 RMK A01 T10861181  RH  046%=      5-min Rain = 0
KAI1 121027Z 16007KT M09/M18 A3026 RMK A01 T10871184  RH  046%=      5-min Rain = 0
KAI1 121028Z 16007KT M09/M19 A3026 RMK A01 T10891186  RH  045%=      5-min Rain = 0
KAI1 121029Z 16007KT M09/M19 A3026 RMK A01 T10901187  RH  045%=      5-min Rain = 0
KAI1 121030Z 16007KT M09/M19 A3026 RMK A01 T10921188  RH  045%=      5-min Rain = 0
KAI1 121031Z 16007KT M09/M19 A3026 RMK A01 T10931189  RH  045%=      5-min Rain = 0
KAI1 121032Z 16008KT M09/M19 A3026 RMK A01 T10941190  RH  046%=      5-min Rain = 0
KAI1 121033Z 16008KT M10/M19 A3026 RMK A01 T10951190  RH  046%=      5-min Rain = 0
KAI1 121034Z 16008KT M10/M19 A3026 RMK A01 T10961191  RH  046%=      5-min Rain = 0
KAI1 121035Z 16008KT M10/M19 A3026 RMK A01 T10971191  RH  046%=      5-min Rain = 0
KAI1 121036Z 16008KT M10/M19 A3027 RMK A01 T10971191  RH  046%=      5-min Rain = 0
KAI1 121037Z 16008KT M10/M19 A3027 RMK A01 T10981192  RH  046%=      5-min Rain = 0
KAI1 121038Z 16008KT M10/M19 A3027 RMK A01 T10991193  RH  046%=      5-min Rain = 0
KAI1 121039Z 17008KT M10/M19 A3027 RMK A01 T10991192  RH  047%=      5-min Rain = 0
KAI1 121040Z 17008KT M10/M19 A3027 RMK A01 T11001192  RH  047%=      5-min Rain = 0
KAI1 121041Z 17008KT M10/M19 A3027 RMK A01 T10991190  RH  047%=      5-min Rain = 0
KAI1 121042Z 17008KT M10/M19 A3027 RMK A01 T10991188  RH  048%=      5-min Rain = 0
KAI1 121043Z 17008KT M10/M19 A3028 RMK A01 T10991185  RH  049%=      5-min Rain = 0
KAI1 121044Z 17007KT M10/M18 A3027 RMK A01 T10971180  RH  051%=      5-min Rain = 0
KAI1 121045Z 17007KT M10/M18 A3027 RMK A01 T10951175  RH  052%=      5-min Rain = 0
KAI1 121046Z 17007KT M09/M17 A3027 RMK A01 T10921172  RH  052%=      5-min Rain = 0
KAI1 121047Z 17006KT M09/M17 A3027 RMK A01 T10911171  RH  052%=      5-min Rain = 0
KAI1 121048Z 16005KT M09/M17 A3027 RMK A01 T10901172  RH  051%=      5-min Rain = 0
KAI1 121049Z 16005KT M09/M17 A3027 RMK A01 T10901174  RH  051%=      5-min Rain = 0
KAI1 121050Z 16005KT M09/M18 A3027 RMK A01 T10901176  RH  050%=      5-min Rain = 0
KAI1 121051Z 16005KT M09/M18 A3027 RMK A01 T10901177  RH  049%=      5-min Rain = 0
KAI1 121052Z 16006KT M09/M18 A3027 RMK A01 T10911179  RH  049%=      5-min Rain = 0
KAI1 121053Z 16005KT M09/M18 A3027 RMK A01 T10901179  RH  049%=      5-min Rain = 0
KAI1 121054Z 16006KT M09/M18 A3027 RMK A01 T10911180  RH  048%=      5-min Rain = 0
KAI1 121055Z 16006KT M09/M18 A3027 RMK A01 T10911179  RH  049%=      5-min Rain = 0
KAI1 121056Z 16006KT M09/M18 A3027 RMK A01 T10901179  RH  049%=      5-min Rain = 0
KAI1 121057Z 16006KT M09/M18 A3027 RMK A01 T10901179  RH  048%=      5-min Rain = 0
KAI1 121058Z 16006KT M09/M18 A3027 RMK A01 T10911181  RH  048%=      5-min Rain = 0
KAI1 121059Z 16006KT M09/M18 A3027 RMK A01 T10911182  RH  048%=      5-min Rain = 0
KAI1 121100Z 16007KT M09/M18 A3027 RMK A01 T10921183  RH  048%=      5-min Rain = 0
KAI1 121101Z 17007KT M09/M18 A3027 RMK A01 T10931183  RH  048%=      5-min Rain = 0
KAI1 121102Z 17006KT M09/M18 A3027 RMK A01 T10931183  RH  048%=      5-min Rain = 0
KAI1 121103Z 16006KT M09/M18 A3027 RMK A01 T10931182  RH  048%=      5-min Rain = 0
KAI1 121104Z 16006KT M09/M18 A3027 RMK A01 T10931182  RH  048%=      5-min Rain = 0
KAI1 121105Z 17006KT M09/M18 A3027 RMK A01 T10941184  RH  048%=      5-min Rain = 0
KAI1 121106Z 17006KT M09/M18 A3027 RMK A01 T10941183  RH  048%=      5-min Rain = 0
KAI1 121107Z 17005KT M09/M18 A3027 RMK A01 T10941182  RH  049%=      5-min Rain = 0
KAI1 121108Z 16005KT M09/M18 A3027 RMK A01 T10931180  RH  049%=      5-min Rain = 0
KAI1 121109Z 16004KT M09/M18 A3027 RMK A01 T10921179  RH  049%=      5-min Rain = 0
KAI1 121110Z 15004KT M09/M18 A3027 RMK A01 T10921180  RH  049%=      5-min Rain = 0
KAI1 121111Z 16004KT M09/M18 A3027 RMK A01 T10931180  RH  049%=      5-min Rain = 0
KAI1 121112Z 15004KT M09/M18 A3027 RMK A01 T10931180  RH  049%=      5-min Rain = 0
KAI1 121113Z 15005KT M09/M18 A3027 RMK A01 T10941180  RH  049%=      5-min Rain = 0
KAI1 121114Z 15005KT M09/M18 A3026 RMK A01 T10941182  RH  049%=      5-min Rain = 0
KAI1 121115Z 16004KT M10/M18 A3026 RMK A01 T10951183  RH  049%=      5-min Rain = 0
KAI1 121116Z 15005KT M10/M18 A3026 RMK A01 T10951184  RH  048%=      5-min Rain = 0
KAI1 121117Z 15005KT M10/M18 A3027 RMK A01 T10961184  RH  048%=      5-min Rain = 0
KAI1 121118Z 16005KT M10/M19 A3027 RMK A01 T10961185  RH  048%=      5-min Rain = 0
KAI1 121119Z 16005KT M10/M18 A3027 RMK A01 T10961183  RH  049%=      5-min Rain = 0
KAI1 121120Z 16005KT M10/M18 A3027 RMK A01 T10961181  RH  050%=      5-min Rain = 0
KAI1 121121Z 16005KT M09/M18 A3027 RMK A01 T10941179  RH  050%=      5-min Rain = 0
KAI1 121122Z 16005KT M09/M18 A3027 RMK A01 T10931178  RH  050%=      5-min Rain = 0
KAI1 121123Z 16005KT M09/M18 A3027 RMK A01 T10931178  RH  050%=      5-min Rain = 0
KAI1 121124Z 16005KT M09/M18 A3027 RMK A01 T10921177  RH  050%=      5-min Rain = 0
KAI1 121125Z 16005KT M09/M18 A3027 RMK A01 T10911177  RH  050%=      5-min Rain = 0
KAI1 121126Z 16005KT M09/M18 A3027 RMK A01 T10911177  RH  050%=      5-min Rain = 0
KAI1 121127Z 15005KT M09/M18 A3027 RMK A01 T10911178  RH  049%=      5-min Rain = 0
KAI1 121128Z 15005KT M09/M18 A3027 RMK A01 T10921178  RH  049%=      5-min Rain = 0
KAI1 121129Z 15005KT M09/M18 A3027 RMK A01 T10911178  RH  049%=      5-min Rain = 0
KAI1 121130Z 15005KT M09/M18 A3027 RMK A01 T10911178  RH  049%=      5-min Rain = 0
KAI1 121131Z 15005KT M09/M18 A3027 RMK A01 T10911180  RH  049%=      5-min Rain = 0
KAI1 121132Z 15005KT M09/M18 A3027 RMK A01 T10921182  RH  048%=      5-min Rain = 0
KAI1 121133Z 15005KT M09/M18 A3027 RMK A01 T10931184  RH  048%=      5-min Rain = 0
KAI1 121134Z 15006KT M09/M19 A3027 RMK A01 T10941186  RH  047%=      5-min Rain = 0
KAI1 121135Z 15006KT M10/M19 A3026 RMK A01 T10951186  RH  047%=      5-min Rain = 0
KAI1 121136Z 14007KT M10/M19 A3026 RMK A01 T10961187  RH  047%=      5-min Rain = 0
KAI1 121137Z 14007KT M10/M19 A3026 RMK A01 T10961187  RH  048%=      5-min Rain = 0
KAI1 121138Z 14008KT M10/M19 A3026 RMK A01 T10971188  RH  047%=      5-min Rain = 0
KAI1 121139Z 14008KT M10/M19 A3026 RMK A01 T10981188  RH  048%=      5-min Rain = 0
KAI1 121140Z 15008KT M10/M19 A3026 RMK A01 T10981186  RH  048%=      5-min Rain = 0
KAI1 121141Z 15009KT M10/M18 A3026 RMK A01 T10971182  RH  050%=      5-min Rain = 0
KAI1 121142Z 15009KT M10/M18 A3026 RMK A01 T10951177  RH  051%=      5-min Rain = 0
KAI1 121143Z 15009KT M09/M18 A3026 RMK A01 T10921176  RH  051%=      5-min Rain = 0
KAI1 121144Z 15009KT M09/M18 A3027 RMK A01 T10911175  RH  050%=      5-min Rain = 0
KAI1 121145Z 15009KT M09/M18 A3027 RMK A01 T10901176  RH  050%=      5-min Rain = 0
KAI1 121146Z 15008KT M09/M18 A3027 RMK A01 T10901176  RH  049%=      5-min Rain = 0
KAI1 121147Z 15008KT M09/M18 A3027 RMK A01 T10891176  RH  049%=      5-min Rain = 0
KAI1 121148Z 15007KT M09/M18 A3027 RMK A01 T10891177  RH  049%=      5-min Rain = 0
KAI1 121149Z 15007KT M09/M18 A3027 RMK A01 T10891177  RH  049%=      5-min Rain = 0
KAI1 121150Z 15007KT M09/M18 A3027 RMK A01 T10891176  RH  049%=      5-min Rain = 0
KAI1 121151Z 15007KT M09/M18 A3027 RMK A01 T10881175  RH  049%=      5-min Rain = 0
KAI1 121152Z 15007KT M09/M18 A3027 RMK A01 T10871175  RH  049%=      5-min Rain = 0
KAI1 121153Z 14007KT M09/M18 A3027 RMK A01 T10871176  RH  049%=      5-min Rain = 0
KAI1 121154Z 14007KT M09/M18 A3027 RMK A01 T10871176  RH  049%=      5-min Rain = 0
KAI1 121155Z 14006KT M09/M18 A3027 RMK A01 T10871175  RH  049%=      5-min Rain = 0
KAI1 121156Z 14006KT M09/M18 A3026 RMK A01 T10861175  RH  049%=      5-min Rain = 0
KAI1 121157Z 13006KT M09/M18 A3026 RMK A01 T10861176  RH  048%=      5-min Rain = 0
KAI1 121158Z 13006KT M09/M18 A3026 RMK A01 T10871177  RH  048%=      5-min Rain = 0
KAI1 121159Z 13006KT M09/M18 A3026 RMK A01 T10881178  RH  048%=      5-min Rain = 0
KAI1 121200Z 13006KT M09/M18 A3026 RMK A01 T10891179  RH  048%=      5-min Rain = 0
KAI1 121201Z 13006KT M09/M18 A3026 RMK A01 T10891179  RH  048%=      5-min Rain = 0
KAI1 121202Z 13006KT M09/M18 A3026 RMK A01 T10901179  RH  048%=      5-min Rain = 0
KAI1 121203Z 13006KT M09/M18 A3026 RMK A01 T10901179  RH  049%=      5-min Rain = 0
KAI1 121204Z 13007KT M09/M18 A3026 RMK A01 T10911179  RH  049%=      5-min Rain = 0
KAI1 121205Z 13007KT M09/M18 A3026 RMK A01 T10911179  RH  049%=      5-min Rain = 0
KAI1 121206Z 13006KT M09/M18 A3026 RMK A01 T10921179  RH  049%=      5-min Rain = 0
KAI1 121207Z 13006KT M09/M18 A3026 RMK A01 T10911177  RH  050%=      5-min Rain = 0
KAI1 121208Z 13007KT M09/M18 A3027 RMK A01 T10911176  RH  050%=      5-min Rain = 0
KAI1 121209Z 13007KT M09/M18 A3027 RMK A01 T10921176  RH  050%=      5-min Rain = 0
KAI1 121210Z 13007KT M09/M18 A3027 RMK A01 T10911176  RH  050%=      5-min Rain = 0
KAI1 121211Z 13007KT M09/M18 A3027 RMK A01 T10911176  RH  050%=      5-min Rain = 0
KAI1 121212Z 13007KT M09/M18 A3027 RMK A01 T10911176  RH  050%=      5-min Rain = 0
KAI1 121213Z 13007KT M09/M18 A3027 RMK A01 T10911177  RH  050%=      5-min Rain = 0
KAI1 121214Z 13007KT M09/M18 A3027 RMK A01 T10911177  RH  050%=      5-min Rain = 0
KAI1 121215Z 13007KT M09/M18 A3027 RMK A01 T10911176  RH  050%=      5-min Rain = 0
KAI1 121216Z 12008KT M09/M18 A3027 RMK A01 T10911176  RH  050%=      5-min Rain = 0
KAI1 121217Z 12008KT M09/M18 A3027 RMK A01 T10911176  RH  050%=      5-min Rain = 0
KAI1 121218Z 13008KT M09/M18 A3027 RMK A01 T10911177  RH  050%=      5-min Rain = 0
KAI1 121219Z 13008KT M09/M18 A3027 RMK A01 T10911177  RH  050%=      5-min Rain = 0
KAI1 121220Z 13008KT M09/M18 A3027 RMK A01 T10911177  RH  050%=      5-min Rain = 0
KAI1 121221Z 13007KT M09/M18 A3027 RMK A01 T10911177  RH  050%=      5-min Rain = 0
KAI1 121222Z 13007KT M09/M18 A3027 RMK A01 T10911178  RH  049%=      5-min Rain = 0
KAI1 121223Z 13007KT M09/M18 A3027 RMK A01 T10911178  RH  049%=      5-min Rain = 0
KAI1 121224Z 13007KT M09/M18 A3027 RMK A01 T10911178  RH  049%=      5-min Rain = 0
KAI1 121225Z 13006KT M09/M18 A3028 RMK A01 T10911178  RH  049%=      5-min Rain = 0
KAI1 121226Z 13006KT M09/M18 A3028 RMK A01 T10911178  RH  049%=      5-min Rain = 0
KAI1 121227Z 13006KT M09/M18 A3028 RMK A01 T10911178  RH  049%=      5-min Rain = 0
KAI1 121228Z 13006KT M09/M18 A3028 RMK A01 T10911178  RH  049%=      5-min Rain = 0
KAI1 121229Z 13006KT M09/M18 A3028 RMK A01 T10911178  RH  050%=      5-min Rain = 0
KAI1 121230Z 13007KT M09/M18 A3028 RMK A01 T10911177  RH  050%=      5-min Rain = 0
KAI1 121231Z 13007KT M09/M18 A3028 RMK A01 T10911178  RH  049%=      5-min Rain = 0
KAI1 121232Z 13007KT M09/M18 A3028 RMK A01 T10921179  RH  049%=      5-min Rain = 0
KAI1 121233Z 13006KT M09/M18 A3028 RMK A01 T10921179  RH  049%=      5-min Rain = 0
KAI1 121234Z 13006KT M09/M18 A3028 RMK A01 T10931179  RH  050%=      5-min Rain = 0
KAI1 121235Z 13006KT M09/M18 A3028 RMK A01 T10931178  RH  050%=      5-min Rain = 0
KAI1 121236Z 12006KT M09/M18 A3028 RMK A01 T10931177  RH  050%=      5-min Rain = 0
KAI1 121237Z 12006KT M09/M18 A3028 RMK A01 T10931177  RH  050%=      5-min Rain = 0
KAI1 121238Z 12006KT M09/M18 A3028 RMK A01 T10931177  RH  050%=      5-min Rain = 0
KAI1 121239Z 12006KT M09/M18 A3028 RMK A01 T10921176  RH  050%=      5-min Rain = 0
KAI1 121240Z 12006KT M09/M18 A3028 RMK A01 T10911175  RH  051%=      5-min Rain = 0
KAI1 121241Z 12006KT M09/M18 A3028 RMK A01 T10911175  RH  051%=      5-min Rain = 0
KAI1 121242Z 12006KT M09/M18 A3028 RMK A01 T10911175  RH  050%=      5-min Rain = 0
KAI1 121243Z 12006KT M09/M18 A3028 RMK A01 T10911176  RH  050%=      5-min Rain = 0
KAI1 121244Z 12006KT M09/M18 A3028 RMK A01 T10911176  RH  050%=      5-min Rain = 0
KAI1 121245Z 12006KT M09/M18 A3028 RMK A01 T10911176  RH  050%=      5-min Rain = 0
KAI1 121246Z 12006KT M09/M18 A3028 RMK A01 T10911176  RH  050%=      5-min Rain = 0
KAI1 121247Z 12006KT M09/M18 A3028 RMK A01 T10911176  RH  050%=      5-min Rain = 0
KAI1 121248Z 12006KT M09/M18 A3028 RMK A01 T10901175  RH  050%=      5-min Rain = 0
KAI1 121249Z 13006KT M09/M17 A3028 RMK A01 T10901174  RH  050%=      5-min Rain = 0
KAI1 121250Z 13006KT M09/M17 A3029 RMK A01 T10891173  RH  051%=      5-min Rain = 0
KAI1 121251Z 13006KT M09/M17 A3029 RMK A01 T10891173  RH  051%=      5-min Rain = 0
KAI1 121252Z 13006KT M09/M17 A3029 RMK A01 T10881173  RH  050%=      5-min Rain = 0
KAI1 121253Z 13006KT M09/M17 A3029 RMK A01 T10881172  RH  050%=      5-min Rain = 0
KAI1 121254Z 13006KT M09/M17 A3029 RMK A01 T10881172  RH  051%=      5-min Rain = 0
KAI1 121255Z 13007KT M09/M17 A3029 RMK A01 T10871172  RH  050%=      5-min Rain = 0
KAI1 121256Z 14007KT M09/M17 A3029 RMK A01 T10871172  RH  050%=      5-min Rain = 0
KAI1 121257Z 14007KT M09/M17 A3029 RMK A01 T10871171  RH  050%=      5-min Rain = 0
KAI1 121258Z 14007KT M09/M17 A3029 RMK A01 T10861171  RH  050%=      5-min Rain = 0
KAI1 121259Z 14008KT M09/M17 A3029 RMK A01 T10861171  RH  050%=      5-min Rain = 0
KAI1 121300Z 14008KT M09/M17 A3029 RMK A01 T10861172  RH  050%=      5-min Rain = 0
KAI1 121301Z 14008KT M09/M17 A3029 RMK A01 T10851172  RH  050%=      5-min Rain = 0
KAI1 121302Z 14008KT M09/M17 A3029 RMK A01 T10851172  RH  050%=      5-min Rain = 0
KAI1 121303Z 14008KT M09/M17 A3029 RMK A01 T10861172  RH  050%=      5-min Rain = 0
KAI1 121304Z 14008KT M09/M17 A3029 RMK A01 T10861172  RH  050%=      5-min Rain = 0
KAI1 121305Z 14008KT M09/M17 A3029 RMK A01 T10861172  RH  050%=      5-min Rain = 0
KAI1 121306Z 14008KT M09/M17 A3029 RMK A01 T10851171  RH  050%=      5-min Rain = 0
KAI1 121307Z 14009KT M09/M17 A3029 RMK A01 T10851172  RH  050%=      5-min Rain = 0
KAI1 121308Z 14009KT M09/M17 A3029 RMK A01 T10861171  RH  050%=      5-min Rain = 0
KAI1 121309Z 14008KT M09/M17 A3029 RMK A01 T10861171  RH  050%=      5-min Rain = 0
KAI1 121310Z 15009KT M09/M17 A3029 RMK A01 T10851171  RH  050%=      5-min Rain = 0
KAI1 121311Z 15009KT M09/M17 A3029 RMK A01 T10851170  RH  050%=      5-min Rain = 0
KAI1 121312Z 15008KT M09/M17 A3029 RMK A01 T10851170  RH  050%=      5-min Rain = 0
KAI1 121313Z 15008KT M09/M17 A303 RMK A01 T10851171  RH  050%=      5-min Rain = 0
KAI1 121314Z 15008KT M09/M17 A303 RMK A01 T10851171  RH  050%=      5-min Rain = 0
KAI1 121315Z 14008KT M09/M17 A303 RMK A01 T10851171  RH  050%=      5-min Rain = 0
KAI1 121316Z 14008KT M09/M17 A303 RMK A01 T10851171  RH  050%=      5-min Rain = 0
KAI1 121317Z 14007KT M09/M17 A303 RMK A01 T10851172  RH  050%=      5-min Rain = 0
KAI1 121318Z 14007KT M09/M17 A303 RMK A01 T10851172  RH  050%=      5-min Rain = 0
KAI1 121319Z 14007KT M09/M17 A303 RMK A01 T10851172  RH  050%=      5-min Rain = 0
KAI1 121320Z 14007KT M09/M17 A303 RMK A01 T10861172  RH  050%=      5-min Rain = 0
KAI1 121321Z 14007KT M09/M17 A303 RMK A01 T10861173  RH  050%=      5-min Rain = 0
KAI1 121322Z 14008KT M09/M17 A303 RMK A01 T10871173  RH  050%=      5-min Rain = 0
KAI1 121323Z 14007KT M09/M17 A303 RMK A01 T10871173  RH  050%=      5-min Rain = 0
KAI1 121324Z 14007KT M09/M17 A303 RMK A01 T10871173  RH  050%=      5-min Rain = 0
KAI1 121325Z 14007KT M09/M17 A303 RMK A01 T10871173  RH  050%=      5-min Rain = 0
KAI1 121326Z 14008KT M09/M17 A303 RMK A01 T10871173  RH  050%=      5-min Rain = 0
KAI1 121327Z 14008KT M09/M17 A303 RMK A01 T10871173  RH  050%=      5-min Rain = 0
KAI1 121328Z 14007KT M09/M17 A303 RMK A01 T10871173  RH  050%=      5-min Rain = 0
KAI1 121329Z 14007KT M09/M17 A303 RMK A01 T10871173  RH  050%=      5-min Rain = 0
KAI1 121330Z 14007KT M09/M17 A303 RMK A01 T10871172  RH  050%=      5-min Rain = 0
KAI1 121331Z 14007KT M09/M17 A303 RMK A01 T10861171  RH  050%=      5-min Rain = 0
KAI1 121332Z 14007KT M09/M17 A303 RMK A01 T10861170  RH  050%=      5-min Rain = 0
KAI1 121333Z 14007KT M09/M17 A303 RMK A01 T10851170  RH  050%=      5-min Rain = 0
KAI1 121334Z 14007KT M09/M17 A303 RMK A01 T10851169  RH  051%=      5-min Rain = 0
KAI1 121335Z 13006KT M08/M17 A303 RMK A01 T10841168  RH  051%=      5-min Rain = 0
KAI1 121336Z 13006KT M08/M17 A303 RMK A01 T10841168  RH  051%=      5-min Rain = 0
KAI1 121337Z 13006KT M08/M17 A303 RMK A01 T10841168  RH  051%=      5-min Rain = 0
KAI1 121338Z 13006KT M08/M17 A303 RMK A01 T10831168  RH  051%=      5-min Rain = 0
KAI1 121339Z 13006KT M08/M17 A303 RMK A01 T10831168  RH  050%=      5-min Rain = 0
KAI1 121340Z 13006KT M08/M17 A303 RMK A01 T10831168  RH  050%=      5-min Rain = 0
KAI1 121341Z 13006KT M08/M17 A303 RMK A01 T10831169  RH  050%=      5-min Rain = 0
KAI1 121342Z 12006KT M08/M17 A303 RMK A01 T10831169  RH  050%=      5-min Rain = 0
KAI1 121343Z 12006KT M08/M17 A303 RMK A01 T10831169  RH  050%=      5-min Rain = 0
KAI1 121344Z 12006KT M08/M17 A303 RMK A01 T10831168  RH  050%=      5-min Rain = 0
KAI1 121345Z 12006KT M08/M17 A303 RMK A01 T10821168  RH  050%=      5-min Rain = 0
KAI1 121346Z 12006KT M08/M17 A303 RMK A01 T10821167  RH  050%=      5-min Rain = 0
KAI1 121347Z 11006KT M08/M17 A303 RMK A01 T10811167  RH  050%=      5-min Rain = 0
KAI1 121348Z 11006KT M08/M17 A303 RMK A01 T10811166  RH  050%=      5-min Rain = 0
KAI1 121349Z 11005KT M08/M17 A303 RMK A01 T10791165  RH  050%=      5-min Rain = 0
KAI1 121350Z 11006KT M08/M16 A303 RMK A01 T10781164  RH  050%=      5-min Rain = 0
KAI1 121351Z 11006KT M08/M16 A303 RMK A01 T10771162  RH  050%=      5-min Rain = 0
KAI1 121352Z 12005KT M08/M16 A303 RMK A01 T10761161  RH  050%=      5-min Rain = 0
KAI1 121353Z 11006KT M07/M16 A303 RMK A01 T10741159  RH  051%=      5-min Rain = 0
KAI1 121354Z 12006KT M07/M16 A303 RMK A01 T10731159  RH  050%=      5-min Rain = 0
KAI1 121355Z 12006KT M07/M16 A303 RMK A01 T10721158  RH  050%=      5-min Rain = 0
KAI1 121356Z 12006KT M07/M16 A303 RMK A01 T10711157  RH  050%=      5-min Rain = 0
KAI1 121357Z 12006KT M07/M16 A303 RMK A01 T10711157  RH  050%=      5-min Rain = 0
KAI1 121358Z 13006KT M07/M16 A303 RMK A01 T10701157  RH  050%=      5-min Rain = 0
KAI1 121359Z 13006KT M07/M16 A303 RMK A01 T10701158  RH  049%=      5-min Rain = 0
KAI1 121400Z 13006KT M07/M16 A303 RMK A01 T10691159  RH  049%=      5-min Rain = 0
KAI1 121401Z 13006KT M07/M16 A303 RMK A01 T10701160  RH  049%=      5-min Rain = 0
KAI1 121402Z 13006KT M07/M16 A303 RMK A01 T10701160  RH  048%=      5-min Rain = 0
KAI1 121403Z 12006KT M07/M16 A303 RMK A01 T10701160  RH  048%=      5-min Rain = 0
KAI1 121404Z 12006KT M07/M16 A303 RMK A01 T10701160  RH  049%=      5-min Rain = 0
KAI1 121405Z 11005KT M07/M16 A303 RMK A01 T10701160  RH  049%=      5-min Rain = 0
KAI1 121406Z 11005KT M07/M16 A303 RMK A01 T10701160  RH  049%=      5-min Rain = 0
KAI1 121407Z 12005KT M07/M16 A303 RMK A01 T10691159  RH  049%=      5-min Rain = 0
KAI1 121408Z 12006KT M07/M16 A303 RMK A01 T10691158  RH  049%=      5-min Rain = 0
KAI1 121409Z 12005KT M07/M16 A303 RMK A01 T10691158  RH  049%=      5-min Rain = 0
KAI1 121410Z 11005KT M07/M16 A303 RMK A01 T10681157  RH  049%=      5-min Rain = 0
KAI1 121411Z 11005KT M07/M16 A303 RMK A01 T10671157  RH  049%=      5-min Rain = 0
KAI1 121412Z 11005KT M07/M16 A303 RMK A01 T10661156  RH  049%=      5-min Rain = 0
KAI1 121413Z 11006KT M07/M16 A303 RMK A01 T10651155  RH  049%=      5-min Rain = 0
KAI1 121414Z 11006KT M06/M16 A303 RMK A01 T10641155  RH  048%=      5-min Rain = 0
KAI1 121415Z 11006KT M06/M15 A303 RMK A01 T10621154  RH  048%=      5-min Rain = 0
KAI1 121416Z 12006KT M06/M15 A303 RMK A01 T10611154  RH  048%=      5-min Rain = 0
KAI1 121417Z 12006KT M06/M15 A303 RMK A01 T10601153  RH  048%=      5-min Rain = 0
KAI1 121418Z 12006KT M06/M15 A303 RMK A01 T10591153  RH  047%=      5-min Rain = 0
KAI1 121419Z 12006KT M06/M15 A303 RMK A01 T10581153  RH  047%=      5-min Rain = 0
KAI1 121420Z 12006KT M06/M15 A303 RMK A01 T10571153  RH  047%=      5-min Rain = 0
KAI1 121421Z 12006KT M06/M15 A303 RMK A01 T10561153  RH  047%=      5-min Rain = 0
KAI1 121422Z 12006KT M06/M15 A303 RMK A01 T10561153  RH  046%=      5-min Rain = 0
KAI1 121423Z 12006KT M06/M15 A303 RMK A01 T10551152  RH  046%=      5-min Rain = 0
KAI1 121424Z 11006KT M05/M15 A303 RMK A01 T10541152  RH  046%=      5-min Rain = 0
KAI1 121425Z 12006KT M05/M15 A303 RMK A01 T10531151  RH  046%=      5-min Rain = 0
KAI1 121426Z 12006KT M05/M15 A303 RMK A01 T10521150  RH  046%=      5-min Rain = 0
KAI1 121427Z 12006KT M05/M15 A303 RMK A01 T10511149  RH  046%=      5-min Rain = 0
KAI1 121428Z 12006KT M05/M15 A303 RMK A01 T10501148  RH  046%=      5-min Rain = 0
KAI1 121429Z 12006KT M05/M15 A303 RMK A01 T10491147  RH  046%=      5-min Rain = 0
KAI1 121430Z 12007KT M05/M15 A303 RMK A01 T10481146  RH  046%=      5-min Rain = 0
KAI1 121431Z 12007KT M05/M15 A303 RMK A01 T10471145  RH  046%=      5-min Rain = 0
KAI1 121432Z 13008KT M05/M14 A303 RMK A01 T10451144  RH  046%=      5-min Rain = 0
KAI1 121433Z 13008KT M04/M14 A303 RMK A01 T10431143  RH  046%=      5-min Rain = 0
KAI1 121434Z 13008KT M04/M14 A303 RMK A01 T10421141  RH  046%=      5-min Rain = 0
KAI1 121435Z 13008KT M04/M14 A303 RMK A01 T10401141  RH  046%=      5-min Rain = 0
KAI1 121436Z 13008KT M04/M14 A3031 RMK A01 T10381139  RH  045%=      5-min Rain = 0
KAI1 121437Z 13009KT M04/M14 A3031 RMK A01 T10371139  RH  045%=      5-min Rain = 0
KAI1 121438Z 13011KT M04/M14 A3031 RMK A01 T10361138  RH  045%=      5-min Rain = 0
KAI1 121439Z 13009KT M04/M14 A3031 RMK A01 T10361139  RH  045%=      5-min Rain = 0
KAI1 121440Z 14009KT M04/M14 A3031 RMK A01 T10351138  RH  045%=      5-min Rain = 0
KAI1 121441Z 14011KT M03/M14 A3031 RMK A01 T10331137  RH  044%=      5-min Rain = 0
KAI1 121442Z 14010KT M03/M14 A3031 RMK A01 T10331137  RH  044%=      5-min Rain = 0
KAI1 121443Z 13010KT M03/M14 A3031 RMK A01 T10321137  RH  044%=      5-min Rain = 0
KAI1 121444Z 13009KT M03/M14 A3031 RMK A01 T10311137  RH  044%=      5-min Rain = 0
KAI1 121445Z 13009KT M03/M14 A3031 RMK A01 T10301136  RH  044%=      5-min Rain = 0
KAI1 121446Z 14009KT M03/M14 A3032 RMK A01 T10301136  RH  044%=      5-min Rain = 0
KAI1 121447Z 13010KT M03/M14 A3032 RMK A01 T10301137  RH  044%=      5-min Rain = 0
KAI1 121448Z 14010KT M03/M14 A3032 RMK A01 T10311137  RH  044%=      5-min Rain = 0
KAI1 121449Z 13009KT M03/M14 A3032 RMK A01 T10311137  RH  044%=      5-min Rain = 0
KAI1 121450Z 13009KT M03/M14 A3032 RMK A01 T10311137  RH  044%=      5-min Rain = 0
KAI1 121451Z 13009KT M03/M14 A3032 RMK A01 T10311137  RH  044%=      5-min Rain = 0
KAI1 121452Z 13011KT M03/M14 A3032 RMK A01 T10311137  RH  044%=      5-min Rain = 0
KAI1 121453Z 14009KT M03/M14 A3032 RMK A01 T10311137  RH  044%=      5-min Rain = 0
KAI1 121454Z 14011KT M03/M14 A3032 RMK A01 T10311137  RH  044%=      5-min Rain = 0
KAI1 121455Z 14010KT M03/M14 A3032 RMK A01 T10311136  RH  044%=      5-min Rain = 0
KAI1 121456Z 14010KT M03/M14 A3032 RMK A01 T10311136  RH  044%=      5-min Rain = 0
KAI1 121457Z 14010KT M03/M14 A3032 RMK A01 T10321136  RH  044%=      5-min Rain = 0
KAI1 121458Z 13010KT M03/M14 A3032 RMK A01 T10321136  RH  044%=      5-min Rain = 0
KAI1 121459Z 14009KT M03/M14 A3032 RMK A01 T10321136  RH  044%=      5-min Rain = 0
KAI1 121500Z 14009KT M03/M14 A3032 RMK A01 T10321136  RH  044%=      5-min Rain = 0
KAI1 121501Z 14010KT M03/M14 A3032 RMK A01 T10311136  RH  044%=      5-min Rain = 0
KAI1 121502Z 14009KT M03/M14 A3032 RMK A01 T10311136  RH  044%=      5-min Rain = 0
KAI1 121503Z 13009KT M03/M14 A3032 RMK A01 T10301135  RH  044%=      5-min Rain = 0
KAI1 121504Z 13010KT M03/M13 A3032 RMK A01 T10281134  RH  044%=      5-min Rain = 0
KAI1 121505Z 14011KT M03/M13 A3032 RMK A01 T10261134  RH  043%=      5-min Rain = 0
KAI1 121506Z 13010KT M03/M13 A3032 RMK A01 T10261134  RH  043%=      5-min Rain = 0
KAI1 121507Z 13010KT M03/M13 A3032 RMK A01 T10251134  RH  043%=      5-min Rain = 0
KAI1 121508Z 13011KT M02/M13 A3032 RMK A01 T10241133  RH  043%=      5-min Rain = 0
KAI1 121509Z 12011KT M02/M13 A3032 RMK A01 T10241133  RH  043%=      5-min Rain = 0
KAI1 121510Z 13009KT M02/M13 A3032 RMK A01 T10231132  RH  043%=      5-min Rain = 0
KAI1 121511Z 13010KT M02/M13 A3032 RMK A01 T10221132  RH  043%=      5-min Rain = 0
KAI1 121512Z 13010KT M02/M13 A3032 RMK A01 T10221132  RH  043%=      5-min Rain = 0
KAI1 121513Z 14010KT M02/M13 A3032 RMK A01 T10231132  RH  043%=      5-min Rain = 0
KAI1 121514Z 14012KT M02/M13 A3033 RMK A01 T10231132  RH  043%=      5-min Rain = 0
KAI1 121515Z 13011KT M02/M13 A3033 RMK A01 T10231132  RH  043%=      5-min Rain = 0
KAI1 121516Z 13010KT M02/M13 A3033 RMK A01 T10231132  RH  043%=      5-min Rain = 0
KAI1 121517Z 14011KT M02/M13 A3033 RMK A01 T10231133  RH  043%=      5-min Rain = 0
KAI1 121518Z 14010KT M02/M13 A3033 RMK A01 T10221132  RH  043%=      5-min Rain = 0
KAI1 121519Z 14010KT M02/M13 A3033 RMK A01 T10201131  RH  042%=      5-min Rain = 0
KAI1 121520Z 13010KT M02/M13 A3033 RMK A01 T10181130  RH  042%=      5-min Rain = 0
KAI1 121521Z 13010KT M02/M13 A3033 RMK A01 T10161129  RH  042%=      5-min Rain = 0
KAI1 121522Z 13011KT M02/M13 A3033 RMK A01 T10161130  RH  041%=      5-min Rain = 0
KAI1 121523Z 13012KT M02/M13 A3033 RMK A01 T10171132  RH  041%=      5-min Rain = 0
KAI1 121524Z 13011KT M02/M13 A3033 RMK A01 T10211134  RH  042%=      5-min Rain = 0
KAI1 121525Z 13011KT M02/M13 A3033 RMK A01 T10221134  RH  042%=      5-min Rain = 0
KAI1 121526Z 13010KT M02/M13 A3033 RMK A01 T10231133  RH  043%=      5-min Rain = 0
KAI1 121527Z 13010KT M02/M13 A3033 RMK A01 T10231133  RH  043%=      5-min Rain = 0
KAI1 121528Z 12011KT M02/M13 A3033 RMK A01 T10231133  RH  043%=      5-min Rain = 0
KAI1 121529Z 13012KT M02/M13 A3033 RMK A01 T10211132  RH  042%=      5-min Rain = 0
KAI1 121530Z 13011KT M02/M13 A3033 RMK A01 T10191132  RH  042%=      5-min Rain = 0
KAI1 121531Z 13011KT M02/M13 A3033 RMK A01 T10181131  RH  042%=      5-min Rain = 0
KAI1 121532Z 14010KT M02/M13 A3033 RMK A01 T10171131  RH  042%=      5-min Rain = 0
KAI1 121533Z 14010KT M02/M13 A3033 RMK A01 T10151130  RH  041%=      5-min Rain = 0
KAI1 121534Z 14011KT M01/M13 A3033 RMK A01 T10131129  RH  041%=      5-min Rain = 0
KAI1 121535Z 13011KT M01/M13 A3033 RMK A01 T10121130  RH  040%=      5-min Rain = 0
KAI1 121536Z 14009KT M01/M13 A3033 RMK A01 T10121129  RH  040%=      5-min Rain = 0
KAI1 121537Z 14012KT M01/M13 A3033 RMK A01 T10121130  RH  040%=      5-min Rain = 0
KAI1 121538Z 14011KT M01/M13 A3033 RMK A01 T10111130  RH  040%=      5-min Rain = 0
KAI1 121539Z 12009KT M01/M13 A3033 RMK A01 T10101129  RH  040%=      5-min Rain = 0
KAI1 121540Z 12010KT M01/M13 A3033 RMK A01 T10071126  RH  040%=      5-min Rain = 0
KAI1 121541Z 13011KT M01/M13 A3033 RMK A01 T10061128  RH  039%=      5-min Rain = 0
KAI1 121542Z 13011KT M01/M13 A3033 RMK A01 T10081131  RH  039%=      5-min Rain = 0
KAI1 121543Z 14012KT M01/M13 A3033 RMK A01 T10101132  RH  039%=      5-min Rain = 0
KAI1 121544Z 13010KT M01/M13 A3033 RMK A01 T10111131  RH  040%=      5-min Rain = 0
KAI1 121545Z 13009KT M01/M13 A3033 RMK A01 T10121131  RH  040%=      5-min Rain = 0
KAI1 121546Z 12010KT M01/M13 A3033 RMK A01 T10131131  RH  040%=      5-min Rain = 0
KAI1 121547Z 14010KT M01/M13 A3033 RMK A01 T10141131  RH  041%=      5-min Rain = 0
KAI1 121548Z 13012KT M01/M13 A3033 RMK A01 T10141131  RH  040%=      5-min Rain = 0
KAI1 121549Z 13011KT M01/M13 A3033 RMK A01 T10111130  RH  040%=      5-min Rain = 0
KAI1 121550Z 14011KT M01/M13 A3033 RMK A01 T10071128  RH  040%=      5-min Rain = 0
KAI1 121551Z 13011KT M01/M13 A3032 RMK A01 T10061128  RH  039%=      5-min Rain = 0
KAI1 121552Z 13011KT M01/M13 A3033 RMK A01 T10051129  RH  038%=      5-min Rain = 0
KAI1 121553Z 13011KT M00/M13 A3033 RMK A01 T10041131  RH  038%=      5-min Rain = 0
KAI1 121554Z 13010KT M00/M13 A3033 RMK A01 T10041131  RH  038%=      5-min Rain = 0
KAI1 121555Z 13010KT M00/M13 A3033 RMK A01 T10031131  RH  037%=      5-min Rain = 0
KAI1 121556Z 12012KT M00/M13 A3033 RMK A01 T10011131  RH  037%=      5-min Rain = 0
KAI1 121557Z 13010KT M00/M13 A3033 RMK A01 T10021131  RH  037%=      5-min Rain = 0
KAI1 121558Z 13010KT M00/M13 A3033 RMK A01 T10031132  RH  037%=      5-min Rain = 0
KAI1 121559Z 13012KT 00/13 A3033 RMK A01 T00-00-131  RH  037%=      5-min Rain = 0
KAI1 121600Z 13012KT 00/13 A3033 RMK A01 T00-00-132  RH  036%=      5-min Rain = 0
KAI1 121601Z 13010KT M00/M13 A3033 RMK A01 T10021133  RH  037%=      5-min Rain = 0
KAI1 121602Z 14012KT M00/M13 A3033 RMK A01 T10031132  RH  037%=      5-min Rain = 0
KAI1 121603Z 14013KT M00/M13 A3033 RMK A01 T10031132  RH  037%=      5-min Rain = 0
KAI1 121604Z 14011KT M00/M13 A3033 RMK A01 T10021132  RH  037%=      5-min Rain = 0
KAI1 121605Z 14013KT M00/M13 A3033 RMK A01 T10021132  RH  037%=      5-min Rain = 0
KAI1 121606Z 13013KT M00/M13 A3033 RMK A01 T10021132  RH  037%=      5-min Rain = 0
KAI1 121607Z 14012KT 00/M13 A3033 RMK A01 T00011129  RH  037%=      5-min Rain = 0
KAI1 121608Z 14014KT 00/M13 A3033 RMK A01 T00021130  RH  036%=      5-min Rain = 0
KAI1 121609Z 13012KT 00/13 A3033 RMK A01 T00000-132  RH  036%=      5-min Rain = 0
KAI1 121610Z 14012KT M00/M13 A3033 RMK A01 T10011132  RH  037%=      5-min Rain = 0
KAI1 121611Z 14012KT M00/M13 A3033 RMK A01 T10011131  RH  037%=      5-min Rain = 0
KAI1 121612Z 15013KT 00/13 A3033 RMK A01 T00-00-131  RH  037%=      5-min Rain = 0
KAI1 121613Z 15013KT M00/M13 A3033 RMK A01 T10011132  RH  037%=      5-min Rain = 0
KAI1 121614Z 13013KT M00/M13 A3033 RMK A01 T10021133  RH  037%=      5-min Rain = 0
KAI1 121615Z 14013KT M00/M13 A3033 RMK A01 T10021132  RH  037%=      5-min Rain = 0
KAI1 121616Z 13011KT M00/M13 A3034 RMK A01 T10021132  RH  037%=      5-min Rain = 0
KAI1 121617Z 14013KT M00/M13 A3033 RMK A01 T10021132  RH  037%=      5-min Rain = 0
KAI1 121618Z 14013KT M00/M13 A3033 RMK A01 T10021132  RH  037%=      5-min Rain = 0
KAI1 121619Z 14012KT M00/M13 A3033 RMK A01 T10021132  RH  037%=      5-min Rain = 0
KAI1 121620Z 13011KT M00/M13 A3033 RMK A01 T10021132  RH  037%=      5-min Rain = 0
KAI1 121621Z 13010KT M00/M13 A3033 RMK A01 T10021132  RH  037%=      5-min Rain = 0
KAI1 121622Z 13012KT M00/M13 A3033 RMK A01 T10021130  RH  037%=      5-min Rain = 0
KAI1 121623Z 12011KT M00/M13 A3033 RMK A01 T10021130  RH  037%=      5-min Rain = 0
KAI1 121624Z 14010KT M00/M13 A3033 RMK A01 T10021131  RH  037%=      5-min Rain = 0
KAI1 121625Z 14011KT M00/M13 A3033 RMK A01 T10021131  RH  037%=      5-min Rain = 0
KAI1 121626Z 13012KT M00/M13 A3034 RMK A01 T10021131  RH  037%=      5-min Rain = 0
KAI1 121627Z 14012KT M00/M13 A3033 RMK A01 T10041132  RH  037%=      5-min Rain = 0
KAI1 121628Z 14013KT M00/M13 A3033 RMK A01 T10041132  RH  037%=      5-min Rain = 0
KAI1 121629Z 14011KT M00/M13 A3033 RMK A01 T10041132  RH  037%=      5-min Rain = 0
KAI1 121630Z 13011KT M00/M13 A3033 RMK A01 T10031132  RH  037%=      5-min Rain = 0
KAI1 121631Z 14012KT M00/M13 A3033 RMK A01 T10041132  RH  037%=      5-min Rain = 0
KAI1 121632Z 13014KT M00/M13 A3033 RMK A01 T10041132  RH  037%=      5-min Rain = 0
KAI1 121633Z 13012KT M01/M13 A3033 RMK A01 T10051133  RH  037%=      5-min Rain = 0
KAI1 121634Z 13012KT M00/M13 A3033 RMK A01 T10041132  RH  037%=      5-min Rain = 0
KAI1 121635Z 12012KT M00/M13 A3033 RMK A01 T10011131  RH  037%=      5-min Rain = 0
KAI1 121636Z 13011KT 00/M13 A3033 RMK A01 T00021129  RH  037%=      5-min Rain = 0
KAI1 121637Z 13010KT 00/M13 A3033 RMK A01 T00031129  RH  036%=      5-min Rain = 0
KAI1 121638Z 13011KT 01/M13 A3033 RMK A01 T00071126  RH  036%=      5-min Rain = 0
KAI1 121639Z 13010KT 01/M13 A3033 RMK A01 T00081129  RH  035%=      5-min Rain = 0
KAI1 121640Z 13010KT 01/M13 A3033 RMK A01 T00071129  RH  035%=      5-min Rain = 0
KAI1 121641Z 14011KT 01/M13 A3032 RMK A01 T00081129  RH  035%=      5-min Rain = 0
KAI1 121642Z 12013KT 01/M13 A3032 RMK A01 T00091129  RH  035%=      5-min Rain = 0
KAI1 121643Z 11012KT 01/M13 A3032 RMK A01 T00111129  RH  035%=      5-min Rain = 0
KAI1 121644Z 12013KT 01/M13 A3032 RMK A01 T00121129  RH  034%=      5-min Rain = 0
KAI1 121645Z 12012KT 01/M13 A3032 RMK A01 T00131129  RH  034%=      5-min Rain = 0
KAI1 121646Z 13011KT 01/M13 A3032 RMK A01 T00121129  RH  034%=      5-min Rain = 0
KAI1 121647Z 13013KT 01/M13 A3032 RMK A01 T00121129  RH  034%=      5-min Rain = 0
KAI1 121648Z 13011KT 01/M13 A3032 RMK A01 T00121131  RH  034%=      5-min Rain = 0
KAI1 121649Z 13010KT 01/M13 A3032 RMK A01 T00101132  RH  034%=      5-min Rain = 0
KAI1 121650Z 12009KT 01/M13 A3032 RMK A01 T00091131  RH  034%=      5-min Rain = 0
KAI1 121651Z 12012KT 01/M13 A3032 RMK A01 T00111131  RH  034%=      5-min Rain = 0
KAI1 121652Z 12013KT 01/M13 A3032 RMK A01 T00101133  RH  034%=      5-min Rain = 0
KAI1 121653Z 12012KT 01/M13 A3032 RMK A01 T00091133  RH  034%=      5-min Rain = 0
KAI1 121654Z 12012KT 01/M13 A3032 RMK A01 T00071134  RH  034%=      5-min Rain = 0
KAI1 121655Z 12010KT 01/M13 A3032 RMK A01 T00061133  RH  035%=      5-min Rain = 0
KAI1 121656Z 12010KT 01/M13 A3032 RMK A01 T00061133  RH  035%=      5-min Rain = 0
KAI1 121657Z 12009KT 01/M13 A3032 RMK A01 T00081131  RH  035%=      5-min Rain = 0
KAI1 121658Z 12010KT 01/M13 A3032 RMK A01 T00131127  RH  034%=      5-min Rain = 0
KAI1 121659Z 12014KT 02/M13 A3032 RMK A01 T00171128  RH  033%=      5-min Rain = 0
KAI1 121700Z 13013KT 02/M13 A3032 RMK A01 T00191130  RH  032%=      5-min Rain = 0
KAI1 121701Z 13014KT 02/M13 A3032 RMK A01 T00211130  RH  032%=      5-min Rain = 0
KAI1 121702Z 13013KT 02/M13 A3032 RMK A01 T00221131  RH  031%=      5-min Rain = 0
KAI1 121703Z 14012KT 02/M13 A3032 RMK A01 T00221131  RH  031%=      5-min Rain = 0
KAI1 121704Z 14010KT 02/M13 A3031 RMK A01 T00231132  RH  031%=      5-min Rain = 0
KAI1 121705Z 12010KT 02/M13 A3031 RMK A01 T00241130  RH  031%=      5-min Rain = 0
KAI1 121706Z 12012KT 03/M13 A3031 RMK A01 T00281126  RH  031%=      5-min Rain = 0
KAI1 121707Z 14012KT 03/M13 A3031 RMK A01 T00301129  RH  030%=      5-min Rain = 0
KAI1 121708Z 13013KT 03/M14 A3031 RMK A01 T00281136  RH  029%=      5-min Rain = 0
KAI1 121709Z 13012KT 03/M14 A3032 RMK A01 T00251135  RH  029%=      5-min Rain = 0
KAI1 121710Z 13012KT 03/M13 A3032 RMK A01 T00251134  RH  030%=      5-min Rain = 0
KAI1 121711Z 13013KT 03/M13 A3032 RMK A01 T00291132  RH  030%=      5-min Rain = 0
KAI1 121712Z 13014KT 03/M13 A3032 RMK A01 T00291134  RH  029%=      5-min Rain = 0
KAI1 121713Z 13011KT 03/M14 A3032 RMK A01 T00251137  RH  029%=      5-min Rain = 0
KAI1 121714Z 13012KT 03/M13 A3031 RMK A01 T00261133  RH  030%=      5-min Rain = 0
KAI1 121715Z 12013KT 03/M14 A3031 RMK A01 T00281136  RH  029%=      5-min Rain = 0
KAI1 121716Z 12010KT 03/M14 A3031 RMK A01 T00271136  RH  029%=      5-min Rain = 0
KAI1 121717Z 11011KT 03/M13 A3031 RMK A01 T00281132  RH  030%=      5-min Rain = 0
KAI1 121718Z 11014KT 03/M13 A3031 RMK A01 T00301133  RH  029%=      5-min Rain = 0
KAI1 121719Z 12012KT 03/M14 A3031 RMK A01 T00291135  RH  029%=      5-min Rain = 0
KAI1 121720Z 11011KT 03/M13 A3031 RMK A01 T00291134  RH  029%=      5-min Rain = 0
KAI1 121721Z 11010KT 03/M13 A3031 RMK A01 T00291131  RH  030%=      5-min Rain = 0
KAI1 121722Z 11011G16KT 03/M13 A3031 RMK A01 T00291133  RH  029%=      5-min Rain = 0
KAI1 121723Z 11014KT 03/M13 A3031 RMK A01 T00291134  RH  029%=      5-min Rain = 0
KAI1 121724Z 11014KT 03/M14 A3031 RMK A01 T00311136  RH  028%=      5-min Rain = 0
KAI1 121725Z 12012KT 03/M14 A3031 RMK A01 T00321138  RH  028%=      5-min Rain = 0
KAI1 121726Z 13011KT 03/M14 A3031 RMK A01 T00321137  RH  028%=      5-min Rain = 0
KAI1 121727Z 13011KT 03/M14 A3031 RMK A01 T00341138  RH  027%=      5-min Rain = 0
KAI1 121728Z 12016KT 03/M14 A3031 RMK A01 T00341139  RH  027%=      5-min Rain = 0
KAI1 121729Z 13013KT 04/M14 A3031 RMK A01 T00351139  RH  027%=      5-min Rain = 0
KAI1 121730Z 12014KT 04/M14 A3031 RMK A01 T00371137  RH  027%=      5-min Rain = 0
KAI1 121731Z 13012KT 03/M14 A3031 RMK A01 T00341141  RH  026%=      5-min Rain = 0
KAI1 121732Z 12011G16KT 03/M15 A3031 RMK A01 T00321145  RH  026%=      5-min Rain = 0
KAI1 121733Z 12013KT 03/M14 A3031 RMK A01 T00311144  RH  026%=      5-min Rain = 0
KAI1 121734Z 12014KT 03/M15 A3031 RMK A01 T00331147  RH  026%=      5-min Rain = 0
KAI1 121735Z 12012KT 03/M15 A3031 RMK A01 T00331146  RH  025%=      5-min Rain = 0
KAI1 121736Z 13012KT 04/M14 A3031 RMK A01 T00351143  RH  026%=      5-min Rain = 0
KAI1 121737Z 12012KT 04/M14 A3031 RMK A01 T00381139  RH  026%=      5-min Rain = 0
KAI1 121738Z 12011KT 04/M14 A3031 RMK A01 T00401138  RH  026%=      5-min Rain = 0
KAI1 121739Z 12014KT 04/M14 A3031 RMK A01 T00391140  RH  026%=      5-min Rain = 0
KAI1 121740Z 12014KT 04/M14 A3031 RMK A01 T00361144  RH  025%=      5-min Rain = 0
KAI1 121741Z 13014KT 04/M15 A3031 RMK A01 T00351146  RH  025%=      5-min Rain = 0
KAI1 121742Z 12010KT 03/M15 A3031 RMK A01 T00331148  RH  025%=      5-min Rain = 0
KAI1 121743Z 13011KT 03/M15 A303 RMK A01 T00321147  RH  026%=      5-min Rain = 0
KAI1 121744Z 15011KT 03/M14 A303 RMK A01 T00341142  RH  026%=      5-min Rain = 0
KAI1 121745Z 13014KT 04/M14 A303 RMK A01 T00391140  RH  026%=      5-min Rain = 0
KAI1 121746Z 13013KT 04/M15 A303 RMK A01 T00401145  RH  025%=      5-min Rain = 0
KAI1 121747Z 12012KT 04/M14 A303 RMK A01 T00381144  RH  025%=      5-min Rain = 0
KAI1 121748Z 11011KT 04/M14 A303 RMK A01 T00381142  RH  025%=      5-min Rain = 0
KAI1 121749Z 12011KT 04/M14 A303 RMK A01 T00381143  RH  025%=      5-min Rain = 0
KAI1 121750Z 12013KT 04/M14 A303 RMK A01 T00381141  RH  026%=      5-min Rain = 0
KAI1 121751Z 12012KT 04/M14 A303 RMK A01 T00401142  RH  025%=      5-min Rain = 0
KAI1 121752Z 15014KT 04/M14 A303 RMK A01 T00411144  RH  025%=      5-min Rain = 0
KAI1 121753Z 15012KT 04/M15 A303 RMK A01 T00421148  RH  024%=      5-min Rain = 0
KAI1 121754Z 14012KT 04/M15 A303 RMK A01 T00421146  RH  024%=      5-min Rain = 0
KAI1 121755Z 13010KT 04/M15 A303 RMK A01 T00421146  RH  024%=      5-min Rain = 0
KAI1 121756Z 13009G14KT 04/M15 A303 RMK A01 T00391147  RH  024%=      5-min Rain = 0
KAI1 121757Z 12015KT 04/M14 A303 RMK A01 T00371144  RH  025%=      5-min Rain = 0
KAI1 121758Z 12013KT 04/M15 A303 RMK A01 T00371145  RH  025%=      5-min Rain = 0
KAI1 121759Z 12013KT 04/M14 A303 RMK A01 T00391144  RH  025%=      5-min Rain = 0
KAI1 121800Z 11012KT 04/M15 A303 RMK A01 T00401146  RH  024%=      5-min Rain = 0
KAI1 121801Z 12012KT 04/M15 A303 RMK A01 T00361151  RH  024%=      5-min Rain = 0
KAI1 121802Z 12008G13KT 03/M15 A303 RMK A01 T00331151  RH  025%=      5-min Rain = 0
KAI1 121803Z 12012G17KT 03/M15 A303 RMK A01 T00341148  RH  025%=      5-min Rain = 0
KAI1 121804Z 14012KT 04/M15 A303 RMK A01 T00351147  RH  025%=      5-min Rain = 0
KAI1 121805Z 12012KT 04/M15 A303 RMK A01 T00351147  RH  025%=      5-min Rain = 0
KAI1 121806Z 11013KT 04/M14 A303 RMK A01 T00381143  RH  025%=      5-min Rain = 0
KAI1 121807Z 12011KT 04/M15 A303 RMK A01 T00381146  RH  025%=      5-min Rain = 0
KAI1 121808Z 12008KT 04/M15 A303 RMK A01 T00361147  RH  025%=      5-min Rain = 0
KAI1 121809Z 12011KT 04/M15 A303 RMK A01 T00351147  RH  025%=      5-min Rain = 0
KAI1 121810Z 13013KT 04/M15 A303 RMK A01 T00371145  RH  025%=      5-min Rain = 0
KAI1 121811Z 12012KT 04/M14 A303 RMK A01 T00411144  RH  024%=      5-min Rain = 0
KAI1 121812Z 13011KT 04/M15 A303 RMK A01 T00411147  RH  024%=      5-min Rain = 0
KAI1 121813Z 14012KT 04/M15 A303 RMK A01 T00421148  RH  024%=      5-min Rain = 0
KAI1 121814Z 14014KT 04/M15 A303 RMK A01 T00421150  RH  023%=      5-min Rain = 0
KAI1 121815Z 14013KT 04/M15 A303 RMK A01 T00431149  RH  023%=      5-min Rain = 0
KAI1 121816Z 12011KT 05/M15 A303 RMK A01 T00471145  RH  023%=      5-min Rain = 0
KAI1 121817Z 14011KT 05/M15 A303 RMK A01 T00471148  RH  023%=      5-min Rain = 0
KAI1 121818Z 15013KT 05/M15 A3029 RMK A01 T00451149  RH  023%=      5-min Rain = 0
KAI1 121819Z 15012KT 05/M15 A3029 RMK A01 T00461149  RH  023%=      5-min Rain = 0
KAI1 121820Z 14011KT 05/M15 A3029 RMK A01 T00471152  RH  022%=      5-min Rain = 0
KAI1 121821Z 14008KT 05/M15 A3029 RMK A01 T00471151  RH  022%=      5-min Rain = 0
KAI1 121822Z 14009KT 05/M15 A3029 RMK A01 T00491146  RH  023%=      5-min Rain = 0
KAI1 121823Z 13012KT 05/M15 A3029 RMK A01 T00501146  RH  023%=      5-min Rain = 0
KAI1 121824Z 13009KT 05/M15 A3029 RMK A01 T00461147  RH  023%=      5-min Rain = 0
KAI1 121825Z 11008KT 04/M15 A3029 RMK A01 T00421148  RH  024%=      5-min Rain = 0
KAI1 121826Z 11012KT 05/M14 A3029 RMK A01 T00451141  RH  024%=      5-min Rain = 0
KAI1 121827Z 13013KT 05/M14 A3029 RMK A01 T00511139  RH  024%=      5-min Rain = 0
KAI1 121828Z 14010KT 05/M14 A3029 RMK A01 T00511143  RH  023%=      5-min Rain = 0
KAI1 121829Z 14014KT 05/M14 A3029 RMK A01 T00491143  RH  023%=      5-min Rain = 0
KAI1 121830Z 13011KT 05/M14 A3029 RMK A01 T00501141  RH  024%=      5-min Rain = 0
KAI1 121831Z 12012KT 05/M14 A3028 RMK A01 T00501143  RH  023%=      5-min Rain = 0
KAI1 121832Z 11014KT 05/M15 A3029 RMK A01 T00471145  RH  023%=      5-min Rain = 0
KAI1 121833Z 11013KT 05/M14 A3029 RMK A01 T00491143  RH  024%=      5-min Rain = 0
KAI1 121834Z 13012KT 05/M15 A3028 RMK A01 T00461145  RH  023%=      5-min Rain = 0
KAI1 121835Z 12013KT 05/M14 A3028 RMK A01 T00461144  RH  024%=      5-min Rain = 0
KAI1 121836Z 12015KT 05/M14 A3028 RMK A01 T00471144  RH  024%=      5-min Rain = 0
KAI1 121837Z 12013KT 05/M15 A3028 RMK A01 T00471145  RH  024%=      5-min Rain = 0
KAI1 121838Z 12013KT 05/M15 A3028 RMK A01 T00461146  RH  023%=      5-min Rain = 0
KAI1 121839Z 11009KT 05/M15 A3028 RMK A01 T00471146  RH  023%=      5-min Rain = 0
KAI1 121840Z 12014KT 05/M15 A3028 RMK A01 T00461147  RH  023%=      5-min Rain = 0
KAI1 121841Z 13013KT 05/M15 A3028 RMK A01 T00481146  RH  023%=      5-min Rain = 0
KAI1 121842Z 14012KT 05/M15 A3028 RMK A01 T00481149  RH  023%=      5-min Rain = 0
KAI1 121843Z 14010KT 05/M15 A3028 RMK A01 T00491148  RH  023%=      5-min Rain = 0
KAI1 121844Z 11015KT 05/M14 A3028 RMK A01 T00541143  RH  023%=      5-min Rain = 0
KAI1 121845Z 11014KT 06/M14 A3028 RMK A01 T00561143  RH  022%=      5-min Rain = 0
KAI1 121846Z 13010KT 06/M14 A3028 RMK A01 T00571143  RH  022%=      5-min Rain = 0
KAI1 121847Z 13015KT 06/M15 A3028 RMK A01 T00551146  RH  022%=      5-min Rain = 0
KAI1 121848Z 13012KT 05/M15 A3028 RMK A01 T00531147  RH  022%=      5-min Rain = 0
KAI1 121849Z 13014KT 05/M15 A3027 RMK A01 T00521148  RH  022%=      5-min Rain = 0
KAI1 121850Z 14013KT 05/M15 A3027 RMK A01 T00521149  RH  022%=      5-min Rain = 0
KAI1 121851Z 14013KT 05/M15 A3027 RMK A01 T00531150  RH  022%=      5-min Rain = 0
KAI1 121852Z 15013KT 05/M15 A3027 RMK A01 T00541149  RH  022%=      5-min Rain = 0
KAI1 121853Z 14012KT 06/M15 A3027 RMK A01 T00561147  RH  022%=      5-min Rain = 0
KAI1 121854Z 14018KT 06/M15 A3027 RMK A01 T00561150  RH  021%=      5-min Rain = 0
KAI1 121855Z 15014KT 06/M15 A3027 RMK A01 T00571152  RH  021%=      5-min Rain = 0
KAI1 121856Z 16014KT 06/M15 A3027 RMK A01 T00571151  RH  021%=      5-min Rain = 0
KAI1 121857Z 14013KT 06/M15 A3027 RMK A01 T00581150  RH  021%=      5-min Rain = 0
KAI1 121858Z 13016KT 06/M15 A3027 RMK A01 T00591150  RH  021%=      5-min Rain = 0
KAI1 121859Z 15015KT 06/M15 A3027 RMK A01 T00591150  RH  021%=      5-min Rain = 0
KAI1 121900Z 16013KT 06/M15 A3027 RMK A01 T00581150  RH  021%=      5-min Rain = 0
KAI1 121901Z 14011KT 06/M15 A3027 RMK A01 T00581149  RH  021%=      5-min Rain = 0
KAI1 121902Z 15012G17KT 06/M15 A3027 RMK A01 T00591149  RH  021%=      5-min Rain = 0
KAI1 121903Z 15013G18KT 06/M15 A3027 RMK A01 T00591149  RH  021%=      5-min Rain = 0
KAI1 121904Z 14017KT 06/M15 A3027 RMK A01 T00591148  RH  021%=      5-min Rain = 0
KAI1 121905Z 14015KT 06/M15 A3027 RMK A01 T00601149  RH  021%=      5-min Rain = 0
KAI1 121906Z 15013KT 06/M15 A3027 RMK A01 T00601150  RH  020%=      5-min Rain = 0
KAI1 121907Z 16013KT 06/M15 A3027 RMK A01 T00601149  RH  021%=      5-min Rain = 0
KAI1 121908Z 14013KT 06/M15 A3027 RMK A01 T00631146  RH  021%=      5-min Rain = 0
KAI1 121909Z 15015KT 07/M15 A3026 RMK A01 T00651146  RH  020%=      5-min Rain = 0
KAI1 121910Z 14014KT 07/M15 A3026 RMK A01 T00651147  RH  020%=      5-min Rain = 0
KAI1 121911Z 13012KT 06/M15 A3027 RMK A01 T00641147  RH  020%=      5-min Rain = 0
KAI1 121912Z 13015KT 07/M15 A3026 RMK A01 T00651147  RH  020%=      5-min Rain = 0
KAI1 121913Z 13015KT 06/M15 A3026 RMK A01 T00631148  RH  020%=      5-min Rain = 0
KAI1 121914Z 14015KT 06/M15 A3026 RMK A01 T00631148  RH  020%=      5-min Rain = 0
KAI1 121915Z 14012KT 06/M15 A3026 RMK A01 T00621149  RH  020%=      5-min Rain = 0
KAI1 121916Z 13014KT 06/M15 A3026 RMK A01 T00621148  RH  021%=      5-min Rain = 0
KAI1 121917Z 12017KT 06/M15 A3026 RMK A01 T00641147  RH  021%=      5-min Rain = 0
KAI1 121918Z 13017KT 06/M15 A3026 RMK A01 T00611150  RH  020%=      5-min Rain = 0
KAI1 121919Z 14016G21KT 06/M15 A3026 RMK A01 T00611147  RH  021%=      5-min Rain = 0
KAI1 121920Z 13015KT 06/M15 A3026 RMK A01 T00631147  RH  021%=      5-min Rain = 0
KAI1 121921Z 14012KT 06/M15 A3026 RMK A01 T00611150  RH  020%=      5-min Rain = 0
KAI1 121922Z 14011KT 06/M15 A3025 RMK A01 T00591148  RH  021%=      5-min Rain = 0
KAI1 121923Z 13017KT 06/M15 A3025 RMK A01 T00631145  RH  021%=      5-min Rain = 0
KAI1 121924Z 13017KT 06/M15 A3026 RMK A01 T00641148  RH  020%=      5-min Rain = 0
KAI1 121925Z 14013KT 06/M15 A3026 RMK A01 T00631149  RH  020%=      5-min Rain = 0
KAI1 121926Z 13012KT 06/M15 A3025 RMK A01 T00621148  RH  020%=      5-min Rain = 0
KAI1 121927Z 13015KT 06/M15 A3025 RMK A01 T00631147  RH  021%=      5-min Rain = 0
KAI1 121928Z 15015KT 07/M15 A3025 RMK A01 T00671146  RH  020%=      5-min Rain = 0
KAI1 121929Z 14015KT 07/M15 A3025 RMK A01 T00701148  RH  019%=      5-min Rain = 0
KAI1 121930Z 12015KT 07/M15 A3025 RMK A01 T00701148  RH  019%=      5-min Rain = 0
KAI1 121931Z 13014KT 07/M15 A3025 RMK A01 T00691147  RH  020%=      5-min Rain = 0
KAI1 121932Z 12016KT 07/M15 A3025 RMK A01 T00701146  RH  020%=      5-min Rain = 0
KAI1 121933Z 13017KT 07/M15 A3025 RMK A01 T00701149  RH  019%=      5-min Rain = 0
KAI1 121934Z 13014KT 07/M15 A3025 RMK A01 T00671151  RH  019%=      5-min Rain = 0
KAI1 121935Z 13013KT 07/M15 A3025 RMK A01 T00651151  RH  020%=      5-min Rain = 0
KAI1 121936Z 13014G19KT 06/M15 A3024 RMK A01 T00641150  RH  020%=      5-min Rain = 0
KAI1 121937Z 12014KT 07/M15 A3024 RMK A01 T00661150  RH  020%=      5-min Rain = 0
KAI1 121938Z 14012KT 07/M15 A3024 RMK A01 T00681148  RH  020%=      5-min Rain = 0
KAI1 121939Z 14013KT 07/M15 A3024 RMK A01 T00731145  RH  020%=      5-min Rain = 0
KAI1 121940Z 14014KT 07/M15 A3024 RMK A01 T00731150  RH  019%=      5-min Rain = 0
KAI1 121941Z 14018KT 07/M15 A3024 RMK A01 T00721150  RH  019%=      5-min Rain = 0
KAI1 121942Z 14018KT 07/M15 A3024 RMK A01 T00731152  RH  018%=      5-min Rain = 0
KAI1 121943Z 15015KT 07/M16 A3024 RMK A01 T00711155  RH  018%=      5-min Rain = 0
KAI1 121944Z 15018KT 07/M16 A3024 RMK A01 T00691155  RH  018%=      5-min Rain = 0
KAI1 121945Z 15014KT 07/M15 A3024 RMK A01 T00701154  RH  019%=      5-min Rain = 0
KAI1 121946Z 14014G19KT 07/M15 A3024 RMK A01 T00721152  RH  019%=      5-min Rain = 0
KAI1 121947Z 13015KT 08/M15 A3023 RMK A01 T00751151  RH  018%=      5-min Rain = 0
KAI1 121948Z 14015KT 08/M15 A3023 RMK A01 T00761153  RH  018%=      5-min Rain = 0
KAI1 121949Z 14015KT 08/M15 A3023 RMK A01 T00751154  RH  018%=      5-min Rain = 0
KAI1 121950Z 15015KT 07/M15 A3023 RMK A01 T00741154  RH  018%=      5-min Rain = 0
KAI1 121951Z 15014KT 07/M15 A3023 RMK A01 T00731153  RH  018%=      5-min Rain = 0
KAI1 121952Z 14013G18KT 07/M15 A3023 RMK A01 T00731151  RH  019%=      5-min Rain = 0
KAI1 121953Z 14018KT 08/M15 A3023 RMK A01 T00751149  RH  019%=      5-min Rain = 0
KAI1 121954Z 15019KT 08/M15 A3022 RMK A01 T00751151  RH  018%=      5-min Rain = 0
KAI1 121955Z 14016KT 07/M15 A3022 RMK A01 T00741152  RH  018%=      5-min Rain = 0
KAI1 121956Z 13013KT 07/M15 A3023 RMK A01 T00731152  RH  018%=      5-min Rain = 0
KAI1 121957Z 12015KT 07/M15 A3022 RMK A01 T00731152  RH  019%=      5-min Rain = 0
KAI1 121958Z 15017KT 07/M15 A3022 RMK A01 T00721151  RH  019%=      5-min Rain = 0
KAI1 121959Z 15018KT 08/M15 A3022 RMK A01 T00751149  RH  019%=      5-min Rain = 0
KAI1 122000Z 16016KT 08/M15 A3022 RMK A01 T00761149  RH  018%=      5-min Rain = 0
KAI1 122001Z 15013KT 08/M15 A3022 RMK A01 T00771149  RH  018%=      5-min Rain = 0
KAI1 122002Z 15016KT 08/M15 A3022 RMK A01 T00771149  RH  018%=      5-min Rain = 0
KAI1 122003Z 14017KT 08/M15 A3022 RMK A01 T00771150  RH  018%=      5-min Rain = 0
KAI1 122004Z 13020KT 08/M15 A3022 RMK A01 T00781149  RH  018%=      5-min Rain = 0
KAI1 122005Z 14018KT 08/M15 A3022 RMK A01 T00771151  RH  018%=      5-min Rain = 0
KAI1 122006Z 14015KT 08/M15 A3022 RMK A01 T00771151  RH  018%=      5-min Rain = 0
KAI1 122007Z 15013KT 08/M15 A3022 RMK A01 T00751153  RH  018%=      5-min Rain = 0
KAI1 122008Z 15014KT 07/M15 A3022 RMK A01 T00741151  RH  018%=      5-min Rain = 0
KAI1 122009Z 13014KT 08/M15 A3022 RMK A01 T00761149  RH  019%=      5-min Rain = 0
KAI1 122010Z 13017KT 08/M15 A3022 RMK A01 T00771149  RH  018%=      5-min Rain = 0
KAI1 122011Z 13018KT 08/M15 A3021 RMK A01 T00771149  RH  018%=      5-min Rain = 0
KAI1 122012Z 13017KT 08/M15 A3022 RMK A01 T00771152  RH  018%=      5-min Rain = 0
KAI1 122013Z 13012KT 08/M15 A3022 RMK A01 T00761151  RH  018%=      5-min Rain = 0
KAI1 122014Z 13015KT 08/M15 A3022 RMK A01 T00791147  RH  018%=      5-min Rain = 0
KAI1 122015Z 13011KT 08/M15 A3021 RMK A01 T00761153  RH  018%=      5-min Rain = 0
KAI1 122016Z 14018KT 07/M15 A3021 RMK A01 T00741150  RH  019%=      5-min Rain = 0
KAI1 122017Z 14015KT 08/M15 A3021 RMK A01 T00761150  RH  018%=      5-min Rain = 0
KAI1 122018Z 14014G20KT 08/M15 A3021 RMK A01 T00771150  RH  018%=      5-min Rain = 0
KAI1 122019Z 13018KT 08/M15 A3021 RMK A01 T00771149  RH  018%=      5-min Rain = 0
KAI1 122020Z 14016KT 08/M15 A3021 RMK A01 T00751149  RH  019%=      5-min Rain = 0
KAI1 122021Z 15015KT 08/M15 A3021 RMK A01 T00761149  RH  019%=      5-min Rain = 0
KAI1 122022Z 14016KT 08/M15 A3021 RMK A01 T00771147  RH  019%=      5-min Rain = 0
KAI1 122023Z 13017KT 08/M15 A3021 RMK A01 T00781146  RH  019%=      5-min Rain = 0
KAI1 122024Z 12016KT 08/M15 A3021 RMK A01 T00791146  RH  019%=      5-min Rain = 0
KAI1 122025Z 13013G18KT 08/M15 A3021 RMK A01 T00781148  RH  018%=      5-min Rain = 0
KAI1 122026Z 12016G22KT 08/M15 A3021 RMK A01 T00771146  RH  019%=      5-min Rain = 0
KAI1 122027Z 13019KT 08/M15 A3021 RMK A01 T00791145  RH  019%=      5-min Rain = 0
KAI1 122028Z 13018KT 08/M15 A3021 RMK A01 T00781147  RH  019%=      5-min Rain = 0
KAI1 122029Z 13015KT 08/M15 A3021 RMK A01 T00781145  RH  019%=      5-min Rain = 0
KAI1 122030Z 13016KT 08/M14 A3021 RMK A01 T00801143  RH  019%=      5-min Rain = 0
KAI1 122031Z 14015KT 08/M14 A3021 RMK A01 T00811143  RH  019%=      5-min Rain = 0
KAI1 122032Z 14013KT 08/M14 A3021 RMK A01 T00791143  RH  019%=      5-min Rain = 0
KAI1 122033Z 13018KT 08/M14 A302 RMK A01 T00791142  RH  019%=      5-min Rain = 0
KAI1 122034Z 12018KT 08/M14 A3021 RMK A01 T00801143  RH  019%=      5-min Rain = 0
KAI1 122035Z 12017KT 08/M14 A3021 RMK A01 T00781144  RH  019%=      5-min Rain = 0
KAI1 122036Z 12016KT 08/M14 A3021 RMK A01 T00781144  RH  019%=      5-min Rain = 0
KAI1 122037Z 12016KT 08/M14 A3021 RMK A01 T00781144  RH  019%=      5-min Rain = 0
KAI1 122038Z 12014KT 08/M15 A3021 RMK A01 T00771145  RH  019%=      5-min Rain = 0
KAI1 122039Z 13013KT 08/M14 A302 RMK A01 T00761144  RH  019%=      5-min Rain = 0
KAI1 122040Z 13017KT 08/M14 A302 RMK A01 T00781140  RH  020%=      5-min Rain = 0
KAI1 122041Z 13016KT 08/M14 A302 RMK A01 T00801141  RH  019%=      5-min Rain = 0
KAI1 122042Z 14016KT 08/M14 A302 RMK A01 T00801141  RH  019%=      5-min Rain = 0
KAI1 122043Z 14013KT 08/M14 A302 RMK A01 T00781143  RH  019%=      5-min Rain = 0
KAI1 122044Z 13014KT 08/M14 A302 RMK A01 T00761142  RH  020%=      5-min Rain = 0
KAI1 122045Z 13014KT 08/M14 A302 RMK A01 T00771140  RH  020%=      5-min Rain = 0
KAI1 122046Z 12014KT 08/M14 A302 RMK A01 T00781139  RH  020%=      5-min Rain = 0
KAI1 122047Z 13015KT 08/M14 A302 RMK A01 T00791140  RH  020%=      5-min Rain = 0
KAI1 122048Z 13017KT 08/M14 A302 RMK A01 T00781141  RH  019%=      5-min Rain = 0
KAI1 122049Z 14016KT 08/M14 A302 RMK A01 T00791141  RH  019%=      5-min Rain = 0
KAI1 122050Z 13015KT 08/M14 A302 RMK A01 T00801140  RH  019%=      5-min Rain = 0
KAI1 122051Z 13013KT 08/M14 A302 RMK A01 T00771143  RH  019%=      5-min Rain = 0
KAI1 122052Z 13013G18KT 08/M14 A302 RMK A01 T00771140  RH  020%=      5-min Rain = 0
KAI1 122053Z 14018KT 08/M14 A302 RMK A01 T00801135  RH  020%=      5-min Rain = 0
KAI1 122054Z 14014KT 08/M14 A302 RMK A01 T00811136  RH  020%=      5-min Rain = 0
KAI1 122055Z 14014KT 08/M13 A302 RMK A01 T00831134  RH  020%=      5-min Rain = 0
KAI1 122056Z 14016KT 08/M14 A302 RMK A01 T00841135  RH  020%=      5-min Rain = 0
KAI1 122057Z 14016KT 08/M14 A302 RMK A01 T00841136  RH  019%=      5-min Rain = 0
KAI1 122058Z 14016KT 09/M14 A302 RMK A01 T00851138  RH  019%=      5-min Rain = 0
KAI1 122059Z 14016G21KT 09/M14 A302 RMK A01 T00851137  RH  019%=      5-min Rain = 0
KAI1 122100Z 13019KT 09/M14 A302 RMK A01 T00851135  RH  019%=      5-min Rain = 0
KAI1 122101Z 13018KT 08/M14 A302 RMK A01 T00841136  RH  020%=      5-min Rain = 0
KAI1 122102Z 14017G22KT 08/M14 A302 RMK A01 T00821137  RH  020%=      5-min Rain = 0
KAI1 122103Z 15015KT 08/M14 A302 RMK A01 T00801138  RH  020%=      5-min Rain = 0
KAI1 122104Z 14014KT 08/M14 A302 RMK A01 T00791137  RH  020%=      5-min Rain = 0
KAI1 122105Z 14020KT 08/M13 A302 RMK A01 T00811134  RH  020%=      5-min Rain = 0
KAI1 122106Z 15018KT 09/M13 A302 RMK A01 T00851133  RH  020%=      5-min Rain = 0
KAI1 122107Z 15017G22KT 09/M14 A302 RMK A01 T00851135  RH  020%=      5-min Rain = 0
KAI1 122108Z 15014KT 08/M14 A302 RMK A01 T00841135  RH  020%=      5-min Rain = 0
KAI1 122109Z 14015KT 08/M14 A302 RMK A01 T00831135  RH  020%=      5-min Rain = 0
KAI1 122110Z 14015G21KT 08/M14 A302 RMK A01 T00811135  RH  020%=      5-min Rain = 0
KAI1 122111Z 13019KT 08/M13 A302 RMK A01 T00811134  RH  020%=      5-min Rain = 0
KAI1 122112Z 13017KT 08/M14 A302 RMK A01 T00811136  RH  020%=      5-min Rain = 0
KAI1 122113Z 12013KT 08/M14 A302 RMK A01 T00801136  RH  020%=      5-min Rain = 0
KAI1 122114Z 14015G20KT 08/M13 A302 RMK A01 T00821134  RH  020%=      5-min Rain = 0
KAI1 122115Z 13018KT 08/M13 A302 RMK A01 T00831134  RH  020%=      5-min Rain = 0
KAI1 122116Z 13016KT 08/M14 A3019 RMK A01 T00811136  RH  020%=      5-min Rain = 0
KAI1 122117Z 12017G22KT 08/M13 A302 RMK A01 T00811133  RH  020%=      5-min Rain = 0
KAI1 122118Z 12020KT 08/M14 A302 RMK A01 T00831135  RH  020%=      5-min Rain = 0
KAI1 122119Z 13015G21KT 08/M14 A302 RMK A01 T00811137  RH  020%=      5-min Rain = 0
KAI1 122120Z 14014G21KT 08/M14 A3019 RMK A01 T00791138  RH  020%=      5-min Rain = 0
KAI1 122121Z 13019KT 08/M14 A302 RMK A01 T00791135  RH  020%=      5-min Rain = 0
KAI1 122122Z 13017KT 08/M14 A302 RMK A01 T00801136  RH  020%=      5-min Rain = 0
KAI1 122123Z 13018KT 08/M14 A302 RMK A01 T00791136  RH  020%=      5-min Rain = 0
KAI1 122124Z 12014KT 08/M14 A302 RMK A01 T00791136  RH  020%=      5-min Rain = 0
KAI1 122125Z 13016KT 08/M14 A302 RMK A01 T00781137  RH  020%=      5-min Rain = 0
KAI1 122126Z 14019KT 08/M14 A302 RMK A01 T00781137  RH  020%=      5-min Rain = 0
KAI1 122127Z 14018KT 08/M14 A302 RMK A01 T00781137  RH  020%=      5-min Rain = 0
KAI1 122128Z 14016KT 08/M14 A302 RMK A01 T00781138  RH  020%=      5-min Rain = 0
KAI1 122129Z 14016KT 08/M14 A302 RMK A01 T00781138  RH  020%=      5-min Rain = 0
KAI1 122130Z 14014KT 08/M14 A302 RMK A01 T00781137  RH  020%=      5-min Rain = 0
KAI1 122131Z 13015KT 08/M14 A302 RMK A01 T00771137  RH  020%=      5-min Rain = 0
KAI1 122132Z 13016KT 08/M14 A302 RMK A01 T00781137  RH  020%=      5-min Rain = 0
KAI1 122133Z 13013KT 08/M14 A302 RMK A01 T00781136  RH  020%=      5-min Rain = 0
KAI1 122134Z 13014KT 08/M13 A302 RMK A01 T00801133  RH  020%=      5-min Rain = 0
KAI1 122135Z 12015KT 08/M13 A302 RMK A01 T00821134  RH  020%=      5-min Rain = 0
KAI1 122136Z 12013KT 08/M14 A302 RMK A01 T00821137  RH  020%=      5-min Rain = 0
KAI1 122137Z 12017KT 08/M14 A302 RMK A01 T00801137  RH  020%=      5-min Rain = 0
KAI1 122138Z 12017KT 08/M14 A302 RMK A01 T00811135  RH  020%=      5-min Rain = 0
KAI1 122139Z 13015KT 08/M14 A3019 RMK A01 T00811135  RH  020%=      5-min Rain = 0
KAI1 122140Z 13012KT 08/M14 A3019 RMK A01 T00811135  RH  020%=      5-min Rain = 0
KAI1 122141Z 12013KT 08/M13 A302 RMK A01 T00811133  RH  020%=      5-min Rain = 0
KAI1 122142Z 13017KT 08/M13 A3019 RMK A01 T00831132  RH  020%=      5-min Rain = 0
KAI1 122143Z 13015KT 08/M13 A302 RMK A01 T00831134  RH  020%=      5-min Rain = 0
KAI1 122144Z 13015KT 08/M13 A302 RMK A01 T00811134  RH  020%=      5-min Rain = 0
KAI1 122145Z 12015KT 08/M14 A3019 RMK A01 T00801135  RH  020%=      5-min Rain = 0
KAI1 122146Z 11017KT 08/M14 A3019 RMK A01 T00791135  RH  020%=      5-min Rain = 0
KAI1 122147Z 12016KT 08/M14 A3019 RMK A01 T00791135  RH  020%=      5-min Rain = 0
KAI1 122148Z 14013KT 08/M13 A3019 RMK A01 T00791134  RH  020%=      5-min Rain = 0
KAI1 122149Z 13019KT 08/M13 A3019 RMK A01 T00821130  RH  021%=      5-min Rain = 0
KAI1 122150Z 13019KT 09/M13 A3019 RMK A01 T00851132  RH  020%=      5-min Rain = 0
KAI1 122151Z 13017KT 08/M13 A3019 RMK A01 T00831134  RH  020%=      5-min Rain = 0
KAI1 122152Z 13014KT 08/M13 A3019 RMK A01 T00831134  RH  020%=      5-min Rain = 0
KAI1 122153Z 13016KT 08/M13 A3019 RMK A01 T00831134  RH  020%=      5-min Rain = 0
KAI1 122154Z 15018KT 08/M13 A3019 RMK A01 T00821133  RH  020%=      5-min Rain = 0
KAI1 122155Z 14017KT 08/M13 A3019 RMK A01 T00831132  RH  020%=      5-min Rain = 0
KAI1 122156Z 14018KT 08/M13 A3019 RMK A01 T00841131  RH  020%=      5-min Rain = 0
KAI1 122157Z 14017KT 08/M13 A3019 RMK A01 T00831134  RH  020%=      5-min Rain = 0
KAI1 122158Z 14017KT 08/M14 A3019 RMK A01 T00801135  RH  020%=      5-min Rain = 0
KAI1 122159Z 14015KT 08/M13 A3019 RMK A01 T00801133  RH  020%=      5-min Rain = 0
KAI1 122200Z 15017KT 08/M13 A3019 RMK A01 T00791133  RH  021%=      5-min Rain = 0
KAI1 122201Z 13015KT 08/M13 A3019 RMK A01 T00801132  RH  021%=      5-min Rain = 0
KAI1 122202Z 13017G23KT 08/M13 A3019 RMK A01 T00801133  RH  021%=      5-min Rain = 0
KAI1 122203Z 15016KT 08/M13 A3019 RMK A01 T00791133  RH  021%=      5-min Rain = 0
KAI1 122204Z 14015KT 08/M13 A3019 RMK A01 T00781133  RH  021%=      5-min Rain = 0
KAI1 122205Z 14015KT 08/M13 A3019 RMK A01 T00781133  RH  021%=      5-min Rain = 0
KAI1 122206Z 15015KT 08/M13 A3019 RMK A01 T00781133  RH  021%=      5-min Rain = 0
KAI1 122207Z 15016KT 08/M13 A3018 RMK A01 T00781133  RH  021%=      5-min Rain = 0
KAI1 122208Z 14017KT 08/M13 A3019 RMK A01 T00781131  RH  021%=      5-min Rain = 0
KAI1 122209Z 15016KT 08/M13 A3019 RMK A01 T00781131  RH  021%=      5-min Rain = 0
KAI1 122210Z 14016KT 08/M13 A3018 RMK A01 T00771132  RH  021%=      5-min Rain = 0
KAI1 122211Z 14016KT 08/M13 A3018 RMK A01 T00761132  RH  021%=      5-min Rain = 0
KAI1 122212Z 14019KT 08/M13 A3018 RMK A01 T00751132  RH  021%=      5-min Rain = 0
KAI1 122213Z 14017KT 07/M13 A3018 RMK A01 T00741132  RH  022%=      5-min Rain = 0
KAI1 122214Z 13016KT 07/M13 A3019 RMK A01 T00731131  RH  022%=      5-min Rain = 0
KAI1 122215Z 13014KT 07/M13 A3019 RMK A01 T00731131  RH  022%=      5-min Rain = 0
KAI1 122216Z 13013KT 07/M13 A3019 RMK A01 T00721132  RH  022%=      5-min Rain = 0
KAI1 122217Z 14012KT 07/M13 A3019 RMK A01 T00721131  RH  022%=      5-min Rain = 0
KAI1 122218Z 15014KT 07/M13 A3018 RMK A01 T00741129  RH  022%=      5-min Rain = 0
KAI1 122219Z 14016KT 08/M13 A3018 RMK A01 T00761128  RH  022%=      5-min Rain = 0
KAI1 122220Z 14016KT 08/M13 A3019 RMK A01 T00761129  RH  022%=      5-min Rain = 0
KAI1 122221Z 13015KT 08/M13 A3019 RMK A01 T00761129  RH  022%=      5-min Rain = 0
KAI1 122222Z 13011KT 07/M13 A3019 RMK A01 T00741130  RH  022%=      5-min Rain = 0
KAI1 122223Z 13013KT 07/M13 A3019 RMK A01 T00741129  RH  022%=      5-min Rain = 0
KAI1 122224Z 14015KT 07/M13 A3019 RMK A01 T00741129  RH  022%=      5-min Rain = 0
KAI1 122225Z 14017KT 07/M13 A3018 RMK A01 T00741128  RH  022%=      5-min Rain = 0
KAI1 122226Z 14016KT 07/M13 A3018 RMK A01 T00741128  RH  022%=      5-min Rain = 0
KAI1 122227Z 13016KT 07/M13 A3018 RMK A01 T00731129  RH  022%=      5-min Rain = 0
KAI1 122228Z 14016KT 07/M13 A3019 RMK A01 T00731127  RH  023%=      5-min Rain = 0
KAI1 122229Z 14016KT 07/M13 A3019 RMK A01 T00731128  RH  022%=      5-min Rain = 0
KAI1 122230Z 12018KT 07/M13 A3019 RMK A01 T00731128  RH  023%=      5-min Rain = 0
KAI1 122231Z 13018KT 07/M13 A3018 RMK A01 T00721128  RH  023%=      5-min Rain = 0
KAI1 122232Z 13016KT 07/M13 A3019 RMK A01 T00711128  RH  023%=      5-min Rain = 0
KAI1 122233Z 13017KT 07/M13 A3019 RMK A01 T00711128  RH  023%=      5-min Rain = 0
KAI1 122234Z 13014KT 07/M13 A3019 RMK A01 T00721127  RH  023%=      5-min Rain = 0
KAI1 122235Z 13015KT 07/M13 A3018 RMK A01 T00721128  RH  023%=      5-min Rain = 0
KAI1 122236Z 14020KT 07/M13 A3018 RMK A01 T00721127  RH  023%=      5-min Rain = 0
KAI1 122237Z 13016KT 07/M13 A3018 RMK A01 T00711128  RH  023%=      5-min Rain = 0
KAI1 122238Z 13016KT 07/M13 A3018 RMK A01 T00711127  RH  023%=      5-min Rain = 0
KAI1 122239Z 13018KT 07/M13 A3019 RMK A01 T00711127  RH  023%=      5-min Rain = 0
KAI1 122240Z 13016KT 07/M13 A3019 RMK A01 T00701127  RH  023%=      5-min Rain = 0
KAI1 122241Z 12016KT 07/M13 A3018 RMK A01 T00701127  RH  023%=      5-min Rain = 0
KAI1 122242Z 12014KT 07/M13 A3018 RMK A01 T00711126  RH  023%=      5-min Rain = 0
KAI1 122243Z 13014KT 07/M13 A3019 RMK A01 T00711127  RH  023%=      5-min Rain = 0
KAI1 122244Z 14017KT 07/M13 A3019 RMK A01 T00711127  RH  023%=      5-min Rain = 0
KAI1 122245Z 14018KT 07/M13 A3018 RMK A01 T00711126  RH  023%=      5-min Rain = 0
KAI1 122246Z 13016KT 07/M13 A3019 RMK A01 T00701127  RH  023%=      5-min Rain = 0
KAI1 122247Z 14014KT 07/M13 A3019 RMK A01 T00701126  RH  023%=      5-min Rain = 0
KAI1 122248Z 14016KT 07/M13 A3019 RMK A01 T00711125  RH  023%=      5-min Rain = 0
KAI1 122249Z 14015KT 07/M13 A3019 RMK A01 T00711126  RH  023%=      5-min Rain = 0
KAI1 122250Z 13013KT 07/M13 A3019 RMK A01 T00711126  RH  023%=      5-min Rain = 0
KAI1 122251Z 13012KT 07/M13 A3019 RMK A01 T00721125  RH  023%=      5-min Rain = 0
KAI1 122252Z 13016KT 07/M13 A3019 RMK A01 T00731125  RH  023%=      5-min Rain = 0
KAI1 122253Z 13017KT 07/M13 A3019 RMK A01 T00721125  RH  023%=      5-min Rain = 0
KAI1 122254Z 13015KT 07/M13 A3019 RMK A01 T00701126  RH  023%=      5-min Rain = 0
KAI1 122255Z 13017KT 07/M13 A3019 RMK A01 T00691126  RH  023%=      5-min Rain = 0
KAI1 122256Z 14018KT 07/M13 A3019 RMK A01 T00691125  RH  024%=      5-min Rain = 0
KAI1 122257Z 14016KT 07/M13 A3019 RMK A01 T00691125  RH  024%=      5-min Rain = 0
KAI1 122258Z 14015KT 07/M13 A3019 RMK A01 T00681125  RH  024%=      5-min Rain = 0
KAI1 122259Z 13015KT 07/M13 A3019 RMK A01 T00681125  RH  024%=      5-min Rain = 0
KAI1 122300Z 13017KT 07/M13 A3019 RMK A01 T00691125  RH  024%=      5-min Rain = 0
KAI1 122301Z 14016KT 07/M13 A3019 RMK A01 T00681125  RH  024%=      5-min Rain = 0
KAI1 122302Z 14016KT 07/M13 A3019 RMK A01 T00681125  RH  024%=      5-min Rain = 0
KAI1 122303Z 14016KT 07/M12 A3019 RMK A01 T00691123  RH  024%=      5-min Rain = 0
KAI1 122304Z 15016KT 07/M12 A3019 RMK A01 T00691123  RH  024%=      5-min Rain = 0
KAI1 122305Z 14016KT 07/M12 A3019 RMK A01 T00691123  RH  024%=      5-min Rain = 0
KAI1 122306Z 15017KT 07/M12 A3018 RMK A01 T00701123  RH  024%=      5-min Rain = 0
KAI1 122307Z 13016KT 07/M12 A3019 RMK A01 T00701123  RH  024%=      5-min Rain = 0
KAI1 122308Z 13015KT 07/M12 A3019 RMK A01 T00691123  RH  024%=      5-min Rain = 0
KAI1 122309Z 13015KT 07/M12 A3019 RMK A01 T00671124  RH  024%=      5-min Rain = 0
KAI1 122310Z 14014KT 07/M12 A3019 RMK A01 T00671124  RH  024%=      5-min Rain = 0
KAI1 122311Z 15017KT 07/M12 A3019 RMK A01 T00671123  RH  024%=      5-min Rain = 0
KAI1 122312Z 15017KT 07/M12 A3019 RMK A01 T00671123  RH  024%=      5-min Rain = 0
KAI1 122313Z 15018KT 07/M12 A3019 RMK A01 T00661122  RH  025%=      5-min Rain = 0
KAI1 122314Z 14017KT 07/M12 A3019 RMK A01 T00651122  RH  025%=      5-min Rain = 0
KAI1 122315Z 14017KT 06/M12 A3019 RMK A01 T00641122  RH  025%=      5-min Rain = 0
KAI1 122316Z 14016KT 06/M12 A3019 RMK A01 T00641122  RH  025%=      5-min Rain = 0
KAI1 122317Z 14017KT 06/M12 A3019 RMK A01 T00641122  RH  025%=      5-min Rain = 0
KAI1 122318Z 14017KT 06/M12 A3019 RMK A01 T00631122  RH  025%=      5-min Rain = 0
KAI1 122319Z 14018KT 06/M12 A3019 RMK A01 T00631122  RH  025%=      5-min Rain = 0
KAI1 122320Z 14016KT 06/M12 A3019 RMK A01 T00621121  RH  025%=      5-min Rain = 0
KAI1 122321Z 14016KT 06/M12 A3019 RMK A01 T00631121  RH  025%=      5-min Rain = 0
KAI1 122322Z 14018KT 06/M12 A3019 RMK A01 T00621121  RH  025%=      5-min Rain = 0
KAI1 122323Z 13017KT 06/M12 A3019 RMK A01 T00621122  RH  025%=      5-min Rain = 0
KAI1 122324Z 14017KT 06/M12 A3019 RMK A01 T00611122  RH  025%=      5-min Rain = 0
KAI1 122325Z 13017KT 06/M12 A3019 RMK A01 T00611122  RH  026%=      5-min Rain = 0
KAI1 122326Z 13018KT 06/M12 A3019 RMK A01 T00611122  RH  026%=      5-min Rain = 0
KAI1 122327Z 14018KT 06/M12 A3019 RMK A01 T00601122  RH  026%=      5-min Rain = 0
KAI1 122328Z 14017KT 06/M12 A3019 RMK A01 T00601122  RH  026%=      5-min Rain = 0
KAI1 122329Z 13015KT 06/M12 A3019 RMK A01 T00591122  RH  026%=      5-min Rain = 0
KAI1 122330Z 14014G19KT 06/M12 A3019 RMK A01 T00591122  RH  026%=      5-min Rain = 0
KAI1 122331Z 15017KT 06/M12 A3019 RMK A01 T00591122  RH  026%=      5-min Rain = 0
KAI1 122332Z 15018KT 06/M12 A3019 RMK A01 T00581121  RH  026%=      5-min Rain = 0
KAI1 122333Z 15017KT 06/M12 A3019 RMK A01 T00581121  RH  026%=      5-min Rain = 0
KAI1 122334Z 15018KT 06/M12 A3019 RMK A01 T00571121  RH  026%=      5-min Rain = 0
KAI1 122335Z 15015KT 06/M12 A3019 RMK A01 T00571120  RH  027%=      5-min Rain = 0
KAI1 122336Z 15014KT 06/M12 A3019 RMK A01 T00571120  RH  027%=      5-min Rain = 0
KAI1 122337Z 15017KT 06/M12 A3019 RMK A01 T00571120  RH  027%=      5-min Rain = 0
KAI1 122338Z 14015KT 06/M12 A3019 RMK A01 T00561120  RH  027%=      5-min Rain = 0
KAI1 122339Z 15015KT 06/M12 A3019 RMK A01 T00561120  RH  027%=      5-min Rain = 0
KAI1 122340Z 15016KT 06/M12 A3019 RMK A01 T00561120  RH  027%=      5-min Rain = 0
KAI1 122341Z 15015KT 06/M12 A3019 RMK A01 T00561120  RH  027%=      5-min Rain = 0
KAI1 122342Z 15015KT 06/M12 A3019 RMK A01 T00551120  RH  027%=      5-min Rain = 0
KAI1 122343Z 15018KT 06/M12 A3019 RMK A01 T00561120  RH  027%=      5-min Rain = 0
KAI1 122344Z 14017KT 06/M12 A3019 RMK A01 T00551120  RH  027%=      5-min Rain = 0
KAI1 122345Z 14016KT 06/M12 A3019 RMK A01 T00551120  RH  027%=      5-min Rain = 0
KAI1 122346Z 14016KT 05/M12 A3019 RMK A01 T00541120  RH  027%=      5-min Rain = 0
KAI1 122347Z 14017KT 05/M12 A3019 RMK A01 T00541120  RH  027%=      5-min Rain = 0
KAI1 122348Z 14017KT 05/M12 A3019 RMK A01 T00541120  RH  027%=      5-min Rain = 0
KAI1 122349Z 14017KT 05/M12 A3019 RMK A01 T00541120  RH  027%=      5-min Rain = 0
KAI1 122350Z 14016KT 05/M12 A3019 RMK A01 T00531120  RH  028%=      5-min Rain = 0
KAI1 122351Z 14016KT 05/M12 A3019 RMK A01 T00531119  RH  028%=      5-min Rain = 0
KAI1 122352Z 14016KT 05/M12 A3019 RMK A01 T00531119  RH  028%=      5-min Rain = 0
KAI1 122353Z 14017KT 05/M12 A3019 RMK A01 T00521119  RH  028%=      5-min Rain = 0
KAI1 122354Z 14015KT 05/M12 A3019 RMK A01 T00521119  RH  028%=      5-min Rain = 0
KAI1 122355Z 14016KT 05/M12 A3019 RMK A01 T00511119  RH  028%=      5-min Rain = 0
KAI1 122356Z 13016KT 05/M12 A3019 RMK A01 T00511119  RH  028%=      5-min Rain = 0
KAI1 122357Z 14015KT 05/M12 A3019 RMK A01 T00511119  RH  028%=      5-min Rain = 0
KAI1 122358Z 14014KT 05/M12 A3019 RMK A01 T00511119  RH  028%=      5-min Rain = 0
KAI1 122359Z 15015KT 05/M12 A3019 RMK A01 T00501120  RH  028%=      5-min Rain = 0
KAI1 130000Z 14014KT 05/M12 A3019 RMK A01 T00501119  RH  028%=      5-min Rain = 0
KAI1 130001Z 14014KT 05/M12 A3019 RMK A01 T00501119  RH  028%=      5-min Rain = 0
KAI1 130002Z 14014KT 05/M12 A3019 RMK A01 T00501119  RH  028%=      5-min Rain = 0
KAI1 130003Z 14012KT 05/M12 A3019 RMK A01 T00501119  RH  028%=      5-min Rain = 0
KAI1 130004Z 14012KT 05/M12 A302 RMK A01 T00491119  RH  028%=      5-min Rain = 0
KAI1 130005Z 14012KT 05/M12 A302 RMK A01 T00491119  RH  028%=      5-min Rain = 0
KAI1 130006Z 14012KT 05/M12 A302 RMK A01 T00491118  RH  029%=      5-min Rain = 0
KAI1 130007Z 14011KT 05/M12 A302 RMK A01 T00481119  RH  029%=      5-min Rain = 0
KAI1 130008Z 14011KT 05/M12 A302 RMK A01 T00481119  RH  029%=      5-min Rain = 0
KAI1 130009Z 14013KT 05/M12 A302 RMK A01 T00481119  RH  029%=      5-min Rain = 0
KAI1 130010Z 14011KT 05/M12 A302 RMK A01 T00481118  RH  029%=      5-min Rain = 0
KAI1 130011Z 13010KT 05/M12 A302 RMK A01 T00471119  RH  029%=      5-min Rain = 0
KAI1 130012Z 13012KT 05/M12 A302 RMK A01 T00471120  RH  029%=      5-min Rain = 0
KAI1 130013Z 14013KT 05/M12 A302 RMK A01 T00471119  RH  029%=      5-min Rain = 0
KAI1 130014Z 13012KT 05/M12 A302 RMK A01 T00471118  RH  029%=      5-min Rain = 0
KAI1 130015Z 14013KT 05/M12 A302 RMK A01 T00461118  RH  029%=      5-min Rain = 0
KAI1 130016Z 14015KT 05/M12 A302 RMK A01 T00461119  RH  029%=      5-min Rain = 0
KAI1 130017Z 14014KT 05/M12 A302 RMK A01 T00461118  RH  029%=      5-min Rain = 0
KAI1 130018Z 14014KT 05/M12 A302 RMK A01 T00461118  RH  029%=      5-min Rain = 0
KAI1 130019Z 14014KT 05/M12 A302 RMK A01 T00461118  RH  029%=      5-min Rain = 0
KAI1 130020Z 14013KT 05/M12 A302 RMK A01 T00451118  RH  029%=      5-min Rain = 0
KAI1 130021Z 13013KT 05/M12 A302 RMK A01 T00451118  RH  029%=      5-min Rain = 0
KAI1 130022Z 14012KT 05/M12 A302 RMK A01 T00451117  RH  030%=      5-min Rain = 0
KAI1 130023Z 14011KT 04/M12 A302 RMK A01 T00441118  RH  030%=      5-min Rain = 0
KAI1 130024Z 14011KT 04/M12 A302 RMK A01 T00431119  RH  030%=      5-min Rain = 0
KAI1 130025Z 14014KT 04/M12 A302 RMK A01 T00431118  RH  030%=      5-min Rain = 0
KAI1 130026Z 14013KT 04/M12 A302 RMK A01 T00431117  RH  030%=      5-min Rain = 0
KAI1 130027Z 14013KT 04/M12 A302 RMK A01 T00431117  RH  030%=      5-min Rain = 0
KAI1 130028Z 14013KT 04/M12 A302 RMK A01 T00431118  RH  030%=      5-min Rain = 0
KAI1 130029Z 14012KT 04/M12 A302 RMK A01 T00431118  RH  030%=      5-min Rain = 0
KAI1 130030Z 15012KT 04/M12 A302 RMK A01 T00421118  RH  030%=      5-min Rain = 0
KAI1 130031Z 14012KT 04/M12 A302 RMK A01 T00421118  RH  030%=      5-min Rain = 0
KAI1 130032Z 14011KT 04/M12 A302 RMK A01 T00421118  RH  030%=      5-min Rain = 0
KAI1 130033Z 14012KT 04/M12 A302 RMK A01 T00411118  RH  030%=      5-min Rain = 0
KAI1 130034Z 13014KT 04/M12 A302 RMK A01 T00421117  RH  030%=      5-min Rain = 0
KAI1 130035Z 14015KT 04/M12 A302 RMK A01 T00411117  RH  031%=      5-min Rain = 0
KAI1 130036Z 14013KT 04/M12 A302 RMK A01 T00411116  RH  031%=      5-min Rain = 0
KAI1 130037Z 14013KT 04/M12 A302 RMK A01 T00411116  RH  031%=      5-min Rain = 0
KAI1 130038Z 14012KT 04/M12 A302 RMK A01 T00411116  RH  031%=      5-min Rain = 0
KAI1 130039Z 14013KT 04/M12 A302 RMK A01 T00411116  RH  031%=      5-min Rain = 0
KAI1 130040Z 14012KT 04/M12 A302 RMK A01 T00401116  RH  031%=      5-min Rain = 0
KAI1 130041Z 14012KT 04/M12 A302 RMK A01 T00401115  RH  031%=      5-min Rain = 0
KAI1 130042Z 14013KT 04/M12 A302 RMK A01 T00401116  RH  031%=      5-min Rain = 0
KAI1 130043Z 13012KT 04/M12 A302 RMK A01 T00401115  RH  031%=      5-min Rain = 0
KAI1 130044Z 14012KT 04/M12 A302 RMK A01 T00391116  RH  031%=      5-min Rain = 0
KAI1 130045Z 14012KT 04/M12 A302 RMK A01 T00391116  RH  031%=      5-min Rain = 0
KAI1 130046Z 13011KT 04/M12 A302 RMK A01 T00391116  RH  031%=      5-min Rain = 0
KAI1 130047Z 13011KT 04/M12 A302 RMK A01 T00381117  RH  031%=      5-min Rain = 0
KAI1 130048Z 13012KT 04/M12 A302 RMK A01 T00381116  RH  031%=      5-min Rain = 0
KAI1 130049Z 13011KT 04/M12 A302 RMK A01 T00381116  RH  031%=      5-min Rain = 0
KAI1 130050Z 13011KT 04/M12 A302 RMK A01 T00381117  RH  031%=      5-min Rain = 0
KAI1 130051Z 13011KT 04/M12 A302 RMK A01 T00371117  RH  031%=      5-min Rain = 0
KAI1 130052Z 13011KT 04/M12 A302 RMK A01 T00371117  RH  031%=      5-min Rain = 0
KAI1 130053Z 13012KT 04/M12 A302 RMK A01 T00371117  RH  031%=      5-min Rain = 0
KAI1 130054Z 13011KT 04/M12 A302 RMK A01 T00361117  RH  032%=      5-min Rain = 0
KAI1 130055Z 14012KT 04/M12 A3021 RMK A01 T00361117  RH  032%=      5-min Rain = 0
KAI1 130056Z 14012KT 04/M12 A3021 RMK A01 T00361117  RH  032%=      5-min Rain = 0
KAI1 130057Z 14013KT 04/M12 A3021 RMK A01 T00361116  RH  032%=      5-min Rain = 0
KAI1 130058Z 14012KT 04/M12 A3021 RMK A01 T00351117  RH  032%=      5-min Rain = 0
KAI1 130059Z 14012KT 04/M12 A3021 RMK A01 T00351116  RH  032%=      5-min Rain = 0
KAI1 130100Z 14012KT 04/M12 A3021 RMK A01 T00361116  RH  032%=      5-min Rain = 0
KAI1 130101Z 14012KT 04/M12 A3021 RMK A01 T00361116  RH  032%=      5-min Rain = 0
KAI1 130102Z 14012KT 04/M12 A3021 RMK A01 T00351117  RH  032%=      5-min Rain = 0
KAI1 130103Z 14012KT 04/M12 A3021 RMK A01 T00351116  RH  032%=      5-min Rain = 0
KAI1 130104Z 15011KT 03/M12 A3021 RMK A01 T00341116  RH  032%=      5-min Rain = 0
KAI1 130105Z 14013KT 03/M12 A3021 RMK A01 T00341116  RH  032%=      5-min Rain = 0
KAI1 130106Z 14011KT 04/M12 A3021 RMK A01 T00351115  RH  032%=      5-min Rain = 0
KAI1 130107Z 15011KT 04/M12 A3021 RMK A01 T00351115  RH  032%=      5-min Rain = 0
KAI1 130108Z 14011KT 03/M12 A3022 RMK A01 T00341116  RH  032%=      5-min Rain = 0
KAI1 130109Z 14012KT 03/M12 A3022 RMK A01 T00341116  RH  032%=      5-min Rain = 0
KAI1 130110Z 14012KT 03/M12 A3022 RMK A01 T00341115  RH  033%=      5-min Rain = 0
KAI1 130111Z 14011KT 03/M12 A3022 RMK A01 T00341115  RH  033%=      5-min Rain = 0
KAI1 130112Z 14010KT 03/M11 A3022 RMK A01 T00341114  RH  033%=      5-min Rain = 0
KAI1 130113Z 14010KT 03/M12 A3022 RMK A01 T00331115  RH  033%=      5-min Rain = 0
KAI1 130114Z 13010G15KT 03/M12 A3022 RMK A01 T00331115  RH  033%=      5-min Rain = 0
KAI1 130115Z 13012KT 03/M12 A3022 RMK A01 T00321116  RH  033%=      5-min Rain = 0
KAI1 130116Z 14010KT 03/M12 A3022 RMK A01 T00321115  RH  033%=      5-min Rain = 0
KAI1 130117Z 13010KT 03/M11 A3022 RMK A01 T00331114  RH  033%=      5-min Rain = 0
KAI1 130118Z 13012KT 03/M12 A3022 RMK A01 T00321115  RH  033%=      5-min Rain = 0
KAI1 130119Z 13011KT 03/M11 A3022 RMK A01 T00321114  RH  033%=      5-min Rain = 0
KAI1 130120Z 13010KT 03/M11 A3022 RMK A01 T00321114  RH  033%=      5-min Rain = 0
KAI1 130121Z 13010KT 03/M12 A3022 RMK A01 T00321115  RH  033%=      5-min Rain = 0
KAI1 130122Z 13009KT 03/M12 A3022 RMK A01 T00311115  RH  033%=      5-min Rain = 0
KAI1 130123Z 13010KT 03/M11 A3022 RMK A01 T00311114  RH  034%=      5-min Rain = 0
KAI1 130124Z 13010KT 03/M12 A3022 RMK A01 T00301115  RH  034%=      5-min Rain = 0
KAI1 130125Z 13010KT 03/M12 A3022 RMK A01 T00291115  RH  034%=      5-min Rain = 0
KAI1 130126Z 13009KT 03/M12 A3022 RMK A01 T00291115  RH  034%=      5-min Rain = 0
KAI1 130127Z 13010KT 03/M12 A3022 RMK A01 T00281115  RH  034%=      5-min Rain = 0
KAI1 130128Z 13009KT 03/M12 A3022 RMK A01 T00281115  RH  034%=      5-min Rain = 0
KAI1 130129Z 13010KT 03/M12 A3022 RMK A01 T00281115  RH  034%=      5-min Rain = 0
KAI1 130130Z 13009KT 03/M12 A3022 RMK A01 T00281116  RH  034%=      5-min Rain = 0
KAI1 130131Z 13010KT 03/M12 A3022 RMK A01 T00271116  RH  034%=      5-min Rain = 0
KAI1 130132Z 13011KT 03/M12 A3022 RMK A01 T00261116  RH  034%=      5-min Rain = 0
KAI1 130133Z 12010KT 03/M12 A3023 RMK A01 T00261116  RH  034%=      5-min Rain = 0
KAI1 130134Z 13010KT 03/M12 A3023 RMK A01 T00261115  RH  034%=      5-min Rain = 0
KAI1 130135Z 13010KT 03/M12 A3023 RMK A01 T00261116  RH  034%=      5-min Rain = 0
KAI1 130136Z 13010KT 03/M12 A3023 RMK A01 T00251116  RH  034%=      5-min Rain = 0
KAI1 130137Z 13009KT 03/M12 A3023 RMK A01 T00251116  RH  034%=      5-min Rain = 0
KAI1 130138Z 13010KT 02/M12 A3022 RMK A01 T00241117  RH  034%=      5-min Rain = 0
KAI1 130139Z 13009KT 02/M12 A3022 RMK A01 T00241117  RH  035%=      5-min Rain = 0
KAI1 130140Z 13009KT 02/M12 A3022 RMK A01 T00231117  RH  035%=      5-min Rain = 0
KAI1 130141Z 13011KT 02/M12 A3022 RMK A01 T00231117  RH  035%=      5-min Rain = 0
KAI1 130142Z 14011KT 02/M12 A3022 RMK A01 T00221116  RH  035%=      5-min Rain = 0
KAI1 130143Z 14010KT 02/M12 A3022 RMK A01 T00221117  RH  035%=      5-min Rain = 0
KAI1 130144Z 14010KT 02/M12 A3022 RMK A01 T00221117  RH  035%=      5-min Rain = 0
KAI1 130145Z 14010KT 02/M12 A3022 RMK A01 T00221117  RH  035%=      5-min Rain = 0
KAI1 130146Z 14010KT 02/M12 A3023 RMK A01 T00211117  RH  035%=      5-min Rain = 0
KAI1 130147Z 13010KT 02/M12 A3023 RMK A01 T00201117  RH  035%=      5-min Rain = 0
KAI1 130148Z 13009KT 02/M12 A3023 RMK A01 T00201117  RH  036%=      5-min Rain = 0
KAI1 130149Z 13010KT 02/M12 A3023 RMK A01 T00201117  RH  036%=      5-min Rain = 0
KAI1 130150Z 13010KT 02/M12 A3023 RMK A01 T00191117  RH  036%=      5-min Rain = 0
KAI1 130151Z 13010KT 02/M12 A3023 RMK A01 T00191116  RH  036%=      5-min Rain = 0
KAI1 130152Z 13009KT 02/M12 A3023 RMK A01 T00191117  RH  036%=      5-min Rain = 0
KAI1 130153Z 12009KT 02/M12 A3023 RMK A01 T00191117  RH  036%=      5-min Rain = 0
KAI1 130154Z 12009KT 02/M12 A3023 RMK A01 T00191117  RH  036%=      5-min Rain = 0
KAI1 130155Z 12009KT 02/M12 A3023 RMK A01 T00181117  RH  036%=      5-min Rain = 0
KAI1 130156Z 12009KT 02/M12 A3023 RMK A01 T00181117  RH  036%=      5-min Rain = 0
KAI1 130157Z 12009KT 02/M12 A3023 RMK A01 T00181117  RH  036%=      5-min Rain = 0
KAI1 130158Z 12009KT 02/M12 A3023 RMK A01 T00171117  RH  036%=      5-min Rain = 0
KAI1 130159Z 12008KT 02/M12 A3024 RMK A01 T00171117  RH  036%=      5-min Rain = 0
KAI1 130200Z 12008KT 02/M12 A3024 RMK A01 T00171117  RH  036%=      5-min Rain = 0
KAI1 130201Z 12009KT 02/M12 A3024 RMK A01 T00161118  RH  036%=      5-min Rain = 0
KAI1 130202Z 12009KT 02/M12 A3024 RMK A01 T00161118  RH  036%=      5-min Rain = 0
KAI1 130203Z 13009KT 02/M12 A3024 RMK A01 T00161118  RH  036%=      5-min Rain = 0
KAI1 130204Z 13009KT 02/M12 A3024 RMK A01 T00161118  RH  036%=      5-min Rain = 0
KAI1 130205Z 13009KT 02/M12 A3024 RMK A01 T00151119  RH  036%=      5-min Rain = 0
KAI1 130206Z 13009KT 01/M12 A3024 RMK A01 T00141119  RH  036%=      5-min Rain = 0
KAI1 130207Z 13009KT 01/M12 A3024 RMK A01 T00141119  RH  036%=      5-min Rain = 0
KAI1 130208Z 13009KT 01/M12 A3024 RMK A01 T00131120  RH  036%=      5-min Rain = 0
KAI1 130209Z 13008KT 01/M12 A3024 RMK A01 T00131120  RH  036%=      5-min Rain = 0
KAI1 130210Z 12008KT 01/M12 A3024 RMK A01 T00121121  RH  036%=      5-min Rain = 0
KAI1 130211Z 12008KT 01/M12 A3024 RMK A01 T00111121  RH  037%=      5-min Rain = 0
KAI1 130212Z 12008KT 01/M12 A3024 RMK A01 T00101122  RH  037%=      5-min Rain = 0
KAI1 130213Z 12008KT 01/M12 A3024 RMK A01 T00101121  RH  037%=      5-min Rain = 0
KAI1 130214Z 12008KT 01/M12 A3024 RMK A01 T00101121  RH  037%=      5-min Rain = 0
KAI1 130215Z 13008KT 01/M12 A3024 RMK A01 T00101121  RH  037%=      5-min Rain = 0
KAI1 130216Z 12008KT 01/M12 A3024 RMK A01 T00101121  RH  037%=      5-min Rain = 0
KAI1 130217Z 12008KT 01/M12 A3024 RMK A01 T00091122  RH  037%=      5-min Rain = 0
KAI1 130218Z 12008KT 01/M12 A3024 RMK A01 T00081123  RH  037%=      5-min Rain = 0
KAI1 130219Z 12008KT 01/M12 A3024 RMK A01 T00071124  RH  037%=      5-min Rain = 0
KAI1 130220Z 12008KT 01/M12 A3024 RMK A01 T00061124  RH  037%=      5-min Rain = 0
KAI1 130221Z 12007KT 01/M12 A3024 RMK A01 T00061123  RH  037%=      5-min Rain = 0
KAI1 130222Z 12007KT 01/M12 A3024 RMK A01 T00051123  RH  037%=      5-min Rain = 0
KAI1 130223Z 12007KT 01/M12 A3024 RMK A01 T00051124  RH  037%=      5-min Rain = 0
KAI1 130224Z 12007KT 01/M12 A3024 RMK A01 T00051124  RH  038%=      5-min Rain = 0
KAI1 130225Z 12006KT 00/M12 A3024 RMK A01 T00041124  RH  038%=      5-min Rain = 0
KAI1 130226Z 11006KT 00/M13 A3024 RMK A01 T00031125  RH  038%=      5-min Rain = 0
KAI1 130227Z 11006KT 00/M13 A3024 RMK A01 T00021127  RH  037%=      5-min Rain = 0
KAI1 130228Z 10006KT 00/13 A3024 RMK A01 T00000-128  RH  037%=      5-min Rain = 0
KAI1 130229Z 10007KT M00/M13 A3024 RMK A01 T10021130  RH  038%=      5-min Rain = 0
KAI1 130230Z 11009KT M00/M13 A3024 RMK A01 T10031130  RH  038%=      5-min Rain = 0
KAI1 130231Z 11010KT M00/M13 A3024 RMK A01 T10041127  RH  039%=      5-min Rain = 0
KAI1 130232Z 12010KT M00/M12 A3024 RMK A01 T10021124  RH  039%=      5-min Rain = 0
KAI1 130233Z 12009KT 00/12 A3024 RMK A01 T00000-123  RH  039%=      5-min Rain = 0
KAI1 130234Z 12010KT 00/M12 A3024 RMK A01 T00011124  RH  039%=      5-min Rain = 0
KAI1 130235Z 12010KT 00/M12 A3024 RMK A01 T00011123  RH  039%=      5-min Rain = 0
KAI1 130236Z 12010KT 00/M12 A3024 RMK A01 T00021122  RH  039%=      5-min Rain = 0
KAI1 130237Z 12009KT 00/M12 A3024 RMK A01 T00031123  RH  038%=      5-min Rain = 0
KAI1 130238Z 12009KT 00/M12 A3024 RMK A01 T00031123  RH  038%=      5-min Rain = 0
KAI1 130239Z 12008KT 00/M12 A3024 RMK A01 T00031123  RH  038%=      5-min Rain = 0
KAI1 130240Z 12008KT 00/M12 A3024 RMK A01 T00021124  RH  038%=      5-min Rain = 0
KAI1 130241Z 11008KT 00/M12 A3024 RMK A01 T00011124  RH  038%=      5-min Rain = 0
KAI1 130242Z 11008KT 00/M13 A3025 RMK A01 T00011125  RH  038%=      5-min Rain = 0
KAI1 130243Z 11007KT M00/M13 A3025 RMK A01 T10011126  RH  038%=      5-min Rain = 0
KAI1 130244Z 11008KT M00/M13 A3025 RMK A01 T10011126  RH  038%=      5-min Rain = 0
KAI1 130245Z 11008KT M00/M13 A3025 RMK A01 T10021126  RH  039%=      5-min Rain = 0
KAI1 130246Z 11007KT M00/M13 A3025 RMK A01 T10031127  RH  039%=      5-min Rain = 0
KAI1 130247Z 11007KT M00/M13 A3025 RMK A01 T10041128  RH  039%=      5-min Rain = 0
KAI1 130248Z 11007KT M01/M13 A3025 RMK A01 T10051128  RH  039%=      5-min Rain = 0
KAI1 130249Z 11007KT M01/M13 A3025 RMK A01 T10051128  RH  039%=      5-min Rain = 0
KAI1 130250Z 11007KT M01/M13 A3025 RMK A01 T10061128  RH  039%=      5-min Rain = 0
KAI1 130251Z 11006KT M01/M13 A3025 RMK A01 T10071129  RH  039%=      5-min Rain = 0
KAI1 130252Z 11007KT M01/M13 A3025 RMK A01 T10071129  RH  039%=      5-min Rain = 0
KAI1 130253Z 11006KT M01/M13 A3025 RMK A01 T10081129  RH  039%=      5-min Rain = 0
KAI1 130254Z 10006KT M01/M13 A3025 RMK A01 T10091130  RH  039%=      5-min Rain = 0
KAI1 130255Z 10006KT M01/M13 A3025 RMK A01 T10101130  RH  040%=      5-min Rain = 0
KAI1 130256Z 10006KT M01/M13 A3025 RMK A01 T10111130  RH  040%=      5-min Rain = 0
KAI1 130257Z 10006KT M01/M13 A3025 RMK A01 T10111130  RH  040%=      5-min Rain = 0
KAI1 130258Z 10006KT M01/M13 A3025 RMK A01 T10121130  RH  040%=      5-min Rain = 0
KAI1 130259Z 10006KT M01/M13 A3025 RMK A01 T10121130  RH  040%=      5-min Rain = 0
KAI1 130300Z 10006KT M01/M13 A3025 RMK A01 T10131131  RH  040%=      5-min Rain = 0
KAI1 130301Z 10006KT M01/M13 A3025 RMK A01 T10141131  RH  041%=      5-min Rain = 0
KAI1 130302Z 10007KT M02/M13 A3025 RMK A01 T10151131  RH  041%=      5-min Rain = 0
KAI1 130303Z 10007KT M02/M13 A3025 RMK A01 T10151131  RH  041%=      5-min Rain = 0
KAI1 130304Z 10007KT M02/M13 A3025 RMK A01 T10161131  RH  041%=      5-min Rain = 0
KAI1 130305Z 10007KT M02/M13 A3025 RMK A01 T10161132  RH  041%=      5-min Rain = 0
KAI1 130306Z 10007KT M02/M13 A3025 RMK A01 T10171132  RH  041%=      5-min Rain = 0
KAI1 130307Z 10007KT M02/M13 A3025 RMK A01 T10171132  RH  041%=      5-min Rain = 0
KAI1 130308Z 11007KT M02/M13 A3025 RMK A01 T10181132  RH  041%=      5-min Rain = 0
KAI1 130309Z 11006KT M02/M13 A3025 RMK A01 T10181132  RH  041%=      5-min Rain = 0
KAI1 130310Z 11006KT M02/M13 A3025 RMK A01 T10181132  RH  041%=      5-min Rain = 0
KAI1 130311Z 11006KT M02/M13 A3025 RMK A01 T10181132  RH  041%=      5-min Rain = 0
KAI1 130312Z 11006KT M02/M13 A3025 RMK A01 T10191132  RH  042%=      5-min Rain = 0
KAI1 130313Z 11006KT M02/M13 A3025 RMK A01 T10191132  RH  042%=      5-min Rain = 0
KAI1 130314Z 11006KT M02/M13 A3025 RMK A01 T10191132  RH  042%=      5-min Rain = 0
KAI1 130315Z 11006KT M02/M13 A3025 RMK A01 T10191132  RH  042%=      5-min Rain = 0
KAI1 130316Z 11007KT M02/M13 A3025 RMK A01 T10191132  RH  042%=      5-min Rain = 0
KAI1 130317Z 11007KT M02/M13 A3025 RMK A01 T10191133  RH  042%=      5-min Rain = 0
KAI1 130318Z 11007KT M02/M13 A3025 RMK A01 T10201133  RH  042%=      5-min Rain = 0
KAI1 130319Z 11006KT M02/M13 A3025 RMK A01 T10211134  RH  042%=      5-min Rain = 0
KAI1 130320Z 11007KT M02/M13 A3025 RMK A01 T10211134  RH  042%=      5-min Rain = 0
KAI1 130321Z 12007KT M02/M13 A3025 RMK A01 T10211134  RH  042%=      5-min Rain = 0
KAI1 130322Z 12007KT M02/M13 A3025 RMK A01 T10211134  RH  042%=      5-min Rain = 0
KAI1 130323Z 11007KT M02/M13 A3025 RMK A01 T10211134  RH  042%=      5-min Rain = 0
KAI1 130324Z 11007KT M02/M13 A3025 RMK A01 T10211134  RH  042%=      5-min Rain = 0
KAI1 130325Z 11008KT M02/M13 A3025 RMK A01 T10211133  RH  042%=      5-min Rain = 0
KAI1 130326Z 11008KT M02/M13 A3025 RMK A01 T10211133  RH  042%=      5-min Rain = 0
KAI1 130327Z 11008KT M02/M13 A3025 RMK A01 T10211133  RH  042%=      5-min Rain = 0
KAI1 130328Z 11008KT M02/M13 A3025 RMK A01 T10211132  RH  042%=      5-min Rain = 0
KAI1 130329Z 11008KT M02/M13 A3025 RMK A01 T10211133  RH  042%=      5-min Rain = 0
KAI1 130330Z 11008KT M02/M13 A3025 RMK A01 T10211132  RH  042%=      5-min Rain = 0
KAI1 130331Z 11008KT M02/M13 A3025 RMK A01 T10211132  RH  042%=      5-min Rain = 0
KAI1 130332Z 11007KT M02/M13 A3025 RMK A01 T10211133  RH  042%=      5-min Rain = 0
KAI1 130333Z 11007KT M02/M13 A3025 RMK A01 T10221133  RH  042%=      5-min Rain = 0
KAI1 130334Z 11007KT M02/M13 A3025 RMK A01 T10231133  RH  042%=      5-min Rain = 0
KAI1 130335Z 11007KT M02/M13 A3025 RMK A01 T10221133  RH  043%=      5-min Rain = 0
KAI1 130336Z 11007KT M02/M13 A3025 RMK A01 T10221132  RH  043%=      5-min Rain = 0
KAI1 130337Z 11006KT M02/M13 A3025 RMK A01 T10231133  RH  043%=      5-min Rain = 0
KAI1 130338Z 11007KT M02/M13 A3025 RMK A01 T10231132  RH  043%=      5-min Rain = 0
KAI1 130339Z 11007KT M02/M13 A3025 RMK A01 T10231133  RH  043%=      5-min Rain = 0
KAI1 130340Z 11007KT M02/M13 A3025 RMK A01 T10231133  RH  043%=      5-min Rain = 0
KAI1 130341Z 11007KT M02/M13 A3025 RMK A01 T10241132  RH  043%=      5-min Rain = 0
KAI1 130342Z 11007KT M02/M13 A3025 RMK A01 T10241133  RH  043%=      5-min Rain = 0
KAI1 130343Z 11007KT M02/M13 A3025 RMK A01 T10241132  RH  043%=      5-min Rain = 0
KAI1 130344Z 11008KT M02/M13 A3025 RMK A01 T10241132  RH  043%=      5-min Rain = 0
KAI1 130345Z 11008KT M02/M13 A3025 RMK A01 T10241132  RH  043%=      5-min Rain = 0
KAI1 130346Z 11007KT M02/M13 A3026 RMK A01 T10231131  RH  043%=      5-min Rain = 0
KAI1 130347Z 11007KT M02/M13 A3026 RMK A01 T10231131  RH  043%=      5-min Rain = 0
KAI1 130348Z 11007KT M02/M13 A3026 RMK A01 T10231132  RH  043%=      5-min Rain = 0
KAI1 130349Z 11007KT M02/M13 A3026 RMK A01 T10231131  RH  043%=      5-min Rain = 0
KAI1 130350Z 11007KT M02/M13 A3026 RMK A01 T10231131  RH  043%=      5-min Rain = 0
KAI1 130351Z 11007KT M02/M13 A3026 RMK A01 T10241131  RH  044%=      5-min Rain = 0
KAI1 130352Z 11007KT M02/M13 A3026 RMK A01 T10241131  RH  044%=      5-min Rain = 0
KAI1 130353Z 11007KT M03/M13 A3026 RMK A01 T10251131  RH  044%=      5-min Rain = 0
KAI1 130354Z 11007KT M03/M13 A3026 RMK A01 T10251131  RH  044%=      5-min Rain = 0
KAI1 130355Z 11007KT M03/M13 A3026 RMK A01 T10251131  RH  044%=      5-min Rain = 0
KAI1 130356Z 12008KT M03/M13 A3026 RMK A01 T10251131  RH  044%=      5-min Rain = 0
KAI1 130357Z 12008KT M03/M13 A3026 RMK A01 T10251131  RH  044%=      5-min Rain = 0
KAI1 130358Z 12008KT M03/M13 A3026 RMK A01 T10251131  RH  044%=      5-min Rain = 0
KAI1 130359Z 12008KT M03/M13 A3026 RMK A01 T10251131  RH  044%=      5-min Rain = 0
KAI1 130400Z 12008KT M03/M13 A3026 RMK A01 T10251131  RH  044%=      5-min Rain = 0
KAI1 130401Z 12008KT M03/M13 A3026 RMK A01 T10251131  RH  044%=      5-min Rain = 0
KAI1 130402Z 11008KT M03/M13 A3026 RMK A01 T10251130  RH  044%=      5-min Rain = 0
KAI1 130403Z 12008KT M02/M13 A3026 RMK A01 T10241130  RH  044%=      5-min Rain = 0
KAI1 130404Z 11007KT M02/M13 A3026 RMK A01 T10241131  RH  044%=      5-min Rain = 0
KAI1 130405Z 11007KT M02/M13 A3026 RMK A01 T10241130  RH  044%=      5-min Rain = 0
KAI1 130406Z 11007KT M02/M13 A3026 RMK A01 T10241130  RH  044%=      5-min Rain = 0
KAI1 130407Z 12007KT M02/M13 A3026 RMK A01 T10241130  RH  044%=      5-min Rain = 0
KAI1 130408Z 11007KT M03/M13 A3026 RMK A01 T10251130  RH  044%=      5-min Rain = 0
KAI1 130409Z 12007KT M03/M13 A3026 RMK A01 T10251130  RH  044%=      5-min Rain = 0
KAI1 130410Z 12008KT M03/M13 A3026 RMK A01 T10251130  RH  044%=      5-min Rain = 0
KAI1 130411Z 12008KT M03/M13 A3026 RMK A01 T10251130  RH  044%=      5-min Rain = 0
KAI1 130412Z 12008KT M03/M13 A3026 RMK A01 T10251131  RH  044%=      5-min Rain = 0
KAI1 130413Z 12009KT M03/M13 A3026 RMK A01 T10251131  RH  044%=      5-min Rain = 0
KAI1 130414Z 12009KT M03/M13 A3026 RMK A01 T10261131  RH  044%=      5-min Rain = 0
KAI1 130415Z 12009KT M03/M13 A3026 RMK A01 T10251130  RH  044%=      5-min Rain = 0
KAI1 130416Z 12009KT M03/M13 A3026 RMK A01 T10251129  RH  045%=      5-min Rain = 0
KAI1 130417Z 12009KT M03/M13 A3026 RMK A01 T10251129  RH  045%=      5-min Rain = 0
KAI1 130418Z 12009KT M03/M13 A3026 RMK A01 T10251129  RH  045%=      5-min Rain = 0
KAI1 130419Z 12009KT M03/M13 A3026 RMK A01 T10251128  RH  045%=      5-min Rain = 0
KAI1 130420Z 12009KT M03/M13 A3026 RMK A01 T10251128  RH  045%=      5-min Rain = 0
KAI1 130421Z 12009KT M02/M13 A3026 RMK A01 T10241127  RH  045%=      5-min Rain = 0
KAI1 130422Z 11008KT M02/M13 A3026 RMK A01 T10231127  RH  045%=      5-min Rain = 0
KAI1 130423Z 12008KT M02/M13 A3026 RMK A01 T10241127  RH  045%=      5-min Rain = 0
KAI1 130424Z 12008KT M02/M13 A3026 RMK A01 T10241127  RH  045%=      5-min Rain = 0
KAI1 130425Z 12008KT M02/M13 A3026 RMK A01 T10241127  RH  045%=      5-min Rain = 0
KAI1 130426Z 12009KT M02/M13 A3026 RMK A01 T10241127  RH  045%=      5-min Rain = 0
KAI1 130427Z 11009KT M02/M13 A3026 RMK A01 T10241127  RH  045%=      5-min Rain = 0
KAI1 130428Z 12008KT M02/M13 A3026 RMK A01 T10241127  RH  045%=      5-min Rain = 0
KAI1 130429Z 12009KT M02/M13 A3026 RMK A01 T10241127  RH  045%=      5-min Rain = 0
KAI1 130430Z 12008KT M02/M13 A3026 RMK A01 T10241127  RH  045%=      5-min Rain = 0
KAI1 130431Z 12009KT M02/M13 A3026 RMK A01 T10241127  RH  045%=      5-min Rain = 0
KAI1 130432Z 11009KT M02/M13 A3026 RMK A01 T10241126  RH  045%=      5-min Rain = 0
KAI1 130433Z 11009KT M02/M13 A3026 RMK A01 T10241126  RH  046%=      5-min Rain = 0
KAI1 130434Z 11009KT M02/M13 A3026 RMK A01 T10241126  RH  045%=      5-min Rain = 0
KAI1 130435Z 11009KT M02/M13 A3026 RMK A01 T10241127  RH  045%=      5-min Rain = 0
KAI1 130436Z 11009KT M03/M13 A3025 RMK A01 T10251127  RH  045%=      5-min Rain = 0
KAI1 130437Z 11009KT M03/M13 A3025 RMK A01 T10251126  RH  046%=      5-min Rain = 0
KAI1 130438Z 11009KT M03/M13 A3025 RMK A01 T10251126  RH  046%=      5-min Rain = 0
KAI1 130439Z 11009KT M03/M13 A3025 RMK A01 T10251125  RH  046%=      5-min Rain = 0
KAI1 130440Z 11009KT M03/M13 A3025 RMK A01 T10251125  RH  046%=      5-min Rain = 0
KAI1 130441Z 11009KT M03/M13 A3025 RMK A01 T10251125  RH  046%=      5-min Rain = 0
KAI1 130442Z 11009KT M03/M13 A3025 RMK A01 T10251125  RH  046%=      5-min Rain = 0
KAI1 130443Z 11009KT M03/M13 A3025 RMK A01 T10251126  RH  046%=      5-min Rain = 0
KAI1 130444Z 11009KT M03/M13 A3025 RMK A01 T10261126  RH  046%=      5-min Rain = 0
KAI1 130445Z 11009KT M03/M13 A3025 RMK A01 T10251125  RH  046%=      5-min Rain = 0
KAI1 130446Z 11010KT M03/M13 A3025 RMK A01 T10251126  RH  046%=      5-min Rain = 0
KAI1 130447Z 11010KT M03/M13 A3025 RMK A01 T10251125  RH  046%=      5-min Rain = 0
KAI1 130448Z 11010KT M03/M13 A3025 RMK A01 T10261126  RH  046%=      5-min Rain = 0
KAI1 130449Z 11010KT M03/M13 A3025 RMK A01 T10261125  RH  046%=      5-min Rain = 0
KAI1 130450Z 11010KT M03/M13 A3025 RMK A01 T10261125  RH  046%=      5-min Rain = 0
KAI1 130451Z 11010KT M03/M13 A3025 RMK A01 T10261125  RH  046%=      5-min Rain = 0
KAI1 130452Z 11010KT M03/M13 A3025 RMK A01 T10271126  RH  046%=      5-min Rain = 0
KAI1 130453Z 11010KT M03/M13 A3025 RMK A01 T10281127  RH  047%=      5-min Rain = 0
KAI1 130454Z 11010KT M03/M13 A3025 RMK A01 T10291127  RH  047%=      5-min Rain = 0
KAI1 130455Z 11009KT M03/M13 A3025 RMK A01 T10291127  RH  047%=      5-min Rain = 0
KAI1 130456Z 11009KT M03/M13 A3025 RMK A01 T10301127  RH  047%=      5-min Rain = 0
KAI1 130457Z 12009KT M03/M13 A3025 RMK A01 T10301127  RH  047%=      5-min Rain = 0
KAI1 130458Z 12009KT M03/M13 A3025 RMK A01 T10301127  RH  047%=      5-min Rain = 0
KAI1 130459Z 12009KT M03/M13 A3026 RMK A01 T10301127  RH  047%=      5-min Rain = 0
KAI1 130500Z 12008KT M03/M13 A3026 RMK A01 T10301128  RH  047%=      5-min Rain = 0
KAI1 130501Z 12008KT M03/M13 A3026 RMK A01 T10301128  RH  047%=      5-min Rain = 0
KAI1 130502Z 12008KT M03/M13 A3026 RMK A01 T10301128  RH  047%=      5-min Rain = 0
KAI1 130503Z 12008KT M03/M13 A3026 RMK A01 T10301128  RH  047%=      5-min Rain = 0
KAI1 130504Z 12008KT M03/M13 A3026 RMK A01 T10311128  RH  047%=      5-min Rain = 0
KAI1 130505Z 12008KT M03/M13 A3026 RMK A01 T10311128  RH  047%=      5-min Rain = 0
KAI1 130506Z 12008KT M03/M13 A3026 RMK A01 T10311128  RH  047%=      5-min Rain = 0
KAI1 130507Z 12008KT M03/M13 A3026 RMK A01 T10311128  RH  047%=      5-min Rain = 0
KAI1 130508Z 12008KT M03/M13 A3026 RMK A01 T10301127  RH  047%=      5-min Rain = 0
KAI1 130509Z 12008KT M03/M13 A3026 RMK A01 T10301127  RH  047%=      5-min Rain = 0
KAI1 130510Z 12008KT M03/M13 A3026 RMK A01 T10311127  RH  047%=      5-min Rain = 0
KAI1 130511Z 12009KT M03/M13 A3026 RMK A01 T10311127  RH  047%=      5-min Rain = 0
KAI1 130512Z 12009KT M03/M13 A3026 RMK A01 T10301126  RH  048%=      5-min Rain = 0
KAI1 130513Z 12009KT M03/M13 A3026 RMK A01 T10301125  RH  048%=      5-min Rain = 0
KAI1 130514Z 12010KT M03/M12 A3026 RMK A01 T10291123  RH  048%=      5-min Rain = 0
KAI1 130515Z 12011KT M03/M12 A3026 RMK A01 T10281122  RH  048%=      5-min Rain = 0
KAI1 130516Z 12011KT M03/M12 A3026 RMK A01 T10271121  RH  049%=      5-min Rain = 0
KAI1 130517Z 12011KT M03/M12 A3026 RMK A01 T10261120  RH  048%=      5-min Rain = 0
KAI1 130518Z 12010KT M03/M12 A3026 RMK A01 T10261120  RH  048%=      5-min Rain = 0
KAI1 130519Z 12010KT M03/M12 A3025 RMK A01 T10251120  RH  048%=      5-min Rain = 0
KAI1 130520Z 12010KT M03/M12 A3025 RMK A01 T10261121  RH  048%=      5-min Rain = 0
KAI1 130521Z 13010KT M03/M12 A3025 RMK A01 T10251121  RH  048%=      5-min Rain = 0
KAI1 130522Z 13010KT M03/M12 A3025 RMK A01 T10261121  RH  048%=      5-min Rain = 0
KAI1 130523Z 12010KT M03/M12 A3025 RMK A01 T10261120  RH  048%=      5-min Rain = 0
KAI1 130524Z 13011KT M03/M12 A3025 RMK A01 T10251120  RH  048%=      5-min Rain = 0
KAI1 130525Z 12010KT M03/M12 A3025 RMK A01 T10251120  RH  048%=      5-min Rain = 0
KAI1 130526Z 13010KT M03/M12 A3025 RMK A01 T10251119  RH  048%=      5-min Rain = 0
KAI1 130527Z 12010KT M02/M12 A3025 RMK A01 T10241119  RH  048%=      5-min Rain = 0
KAI1 130528Z 12011KT M02/M12 A3025 RMK A01 T10241119  RH  048%=      5-min Rain = 0
KAI1 130529Z 12010KT M02/M12 A3025 RMK A01 T10241118  RH  048%=      5-min Rain = 0
KAI1 130530Z 12011KT M02/M12 A3025 RMK A01 T10241118  RH  049%=      5-min Rain = 0
KAI1 130531Z 12010KT M02/M12 A3025 RMK A01 T10241118  RH  048%=      5-min Rain = 0
KAI1 130532Z 12010KT M02/M12 A3025 RMK A01 T10241118  RH  048%=      5-min Rain = 0
KAI1 130533Z 12009KT M02/M12 A3025 RMK A01 T10241117  RH  049%=      5-min Rain = 0
KAI1 130534Z 12010KT M02/M12 A3025 RMK A01 T10241117  RH  049%=      5-min Rain = 0
KAI1 130535Z 12009KT M02/M12 A3025 RMK A01 T10241117  RH  049%=      5-min Rain = 0
KAI1 130536Z 12009KT M02/M12 A3025 RMK A01 T10241117  RH  049%=      5-min Rain = 0
KAI1 130537Z 12009KT M02/M12 A3025 RMK A01 T10241118  RH  049%=      5-min Rain = 0
KAI1 130538Z 12009KT M02/M12 A3025 RMK A01 T10241117  RH  049%=      5-min Rain = 0
KAI1 130539Z 12009KT M02/M12 A3025 RMK A01 T10241117  RH  049%=      5-min Rain = 0
KAI1 130540Z 12010KT M02/M12 A3025 RMK A01 T10241118  RH  049%=      5-min Rain = 0
KAI1 130541Z 12010KT M03/M12 A3025 RMK A01 T10251118  RH  049%=      5-min Rain = 0
KAI1 130542Z 12010KT M03/M12 A3025 RMK A01 T10251118  RH  049%=      5-min Rain = 0
KAI1 130543Z 12010KT M03/M12 A3025 RMK A01 T10251118  RH  049%=      5-min Rain = 0
KAI1 130544Z 12010KT M02/M12 A3025 RMK A01 T10241117  RH  049%=      5-min Rain = 0
KAI1 130545Z 12010KT M03/M12 A3025 RMK A01 T10251117  RH  049%=      5-min Rain = 0
KAI1 130546Z 12010KT M03/M12 A3025 RMK A01 T10251118  RH  049%=      5-min Rain = 0
KAI1 130547Z 12010KT M03/M12 A3025 RMK A01 T10261118  RH  049%=      5-min Rain = 0
KAI1 130548Z 12010KT M03/M12 A3025 RMK A01 T10261118  RH  049%=      5-min Rain = 0
KAI1 130549Z 12011KT M03/M12 A3025 RMK A01 T10261117  RH  049%=      5-min Rain = 0
KAI1 130550Z 12010KT M03/M12 A3025 RMK A01 T10261117  RH  050%=      5-min Rain = 0
KAI1 130551Z 12011KT M03/M12 A3025 RMK A01 T10261117  RH  049%=      5-min Rain = 0
KAI1 130552Z 13010KT M03/M12 A3025 RMK A01 T10261116  RH  050%=      5-min Rain = 0
KAI1 130553Z 12010KT M03/M12 A3025 RMK A01 T10251115  RH  050%=      5-min Rain = 0
KAI1 130554Z 12010KT M02/M12 A3025 RMK A01 T10241115  RH  050%=      5-min Rain = 0
KAI1 130555Z 12010KT M03/M12 A3025 RMK A01 T10251116  RH  050%=      5-min Rain = 0
KAI1 130556Z 12010KT M03/M12 A3025 RMK A01 T10251116  RH  050%=      5-min Rain = 0
KAI1 130557Z 12011KT M03/M12 A3025 RMK A01 T10251116  RH  050%=      5-min Rain = 0
KAI1 130558Z 12010KT M03/M12 A3025 RMK A01 T10251115  RH  050%=      5-min Rain = 0
KAI1 130559Z 12011KT M03/M12 A3025 RMK A01 T10251115  RH  050%=      5-min Rain = 0

Page generated in 0.1995 seconds.